Wetterdaten: Samstag, 26.11.2016
Datum Zeit Temp. Aussen Temp. o. S. +5cm Feuchte Auss BlattFeu 1 Luftdruck Regen Sonnenschein Regendauer Solar Windben Empfang
26.11.2016 00:00 4,3 C 4,4 C 3,3 C 82 % 0 lf 1020,2 hPa 0,0 l/m 0 min 0 min 5 W/m 14,6 km/h (3 Bft) 96,55 %
26.11.2016 00:02 4,3 C 4,4 C 3,3 C 82 % 0 lf 1020,1 hPa 0,0 l/m 0 min 0 min 5 W/m 6,3 km/h (2 Bft) 5,26 %
26.11.2016 00:05 4,3 C 4,4 C 3,3 C 82 % 0 lf 1020,2 hPa 0,0 l/m 0 min 0 min 5 W/m 14,6 km/h (3 Bft) 94,03 %
26.11.2016 00:06 4,3 C 4,4 C 3,3 C 82 % 0 lf 1020,2 hPa 0,0 l/m 0 min 0 min 5 W/m 14,6 km/h (3 Bft) 100,00 %
26.11.2016 00:08 4,3 C 4,4 C 3,3 C 82 % 0 lf 1020,2 hPa 0,0 l/m 0 min 0 min 5 W/m 16,7 km/h (3 Bft) 93,62 %
26.11.2016 00:10 4,3 C 4,4 C 3,3 C 82 % 0 lf 1020,0 hPa 0,0 l/m 0 min 0 min 5 W/m 16,7 km/h (3 Bft) 91,49 %
26.11.2016 00:12 4,3 C 4,4 C 3,3 C 82 % 0 lf 1020,1 hPa 0,0 l/m 0 min 0 min 5 W/m 23,0 km/h (4 Bft) 97,87 %
26.11.2016 00:14 4,3 C 4,4 C 3,3 C 82 % 0 lf 1020,0 hPa 0,0 l/m 0 min 0 min 5 W/m 23,0 km/h (4 Bft) 97,83 %
26.11.2016 00:16 4,3 C 4,4 C 3,3 C 82 % 0 lf 1020,0 hPa 0,0 l/m 0 min 0 min 5 W/m 16,7 km/h (3 Bft) 95,74 %
26.11.2016 00:18 4,3 C 4,4 C 3,3 C 82 % 0 lf 1020,1 hPa 0,0 l/m 0 min 0 min 5 W/m 20,9 km/h (4 Bft) 95,74 %
26.11.2016 00:20 4,3 C 5,0 C 3,3 C 82 % 0 lf 1020,1 hPa 0,0 l/m 0 min 0 min 5 W/m 14,6 km/h (3 Bft) 93,62 %
26.11.2016 00:22 4,3 C 5,0 C 3,3 C 82 % 0 lf 1020,1 hPa 0,0 l/m 0 min 0 min 5 W/m 10,5 km/h (2 Bft) 95,74 %
26.11.2016 00:24 4,4 C 5,0 C 3,3 C 82 % 0 lf 1020,0 hPa 0,0 l/m 0 min 0 min 5 W/m 12,6 km/h (3 Bft) 97,87 %
26.11.2016 00:26 4,4 C 5,0 C 3,3 C 82 % 0 lf 1020,1 hPa 0,0 l/m 0 min 0 min 5 W/m 10,5 km/h (2 Bft) 93,48 %
26.11.2016 00:28 4,4 C 5,0 C 3,3 C 82 % 0 lf 1020,1 hPa 0,0 l/m 0 min 0 min 5 W/m 10,5 km/h (2 Bft) 95,74 %
26.11.2016 00:30 4,4 C 5,0 C 3,3 C 82 % 0 lf 1020,1 hPa 0,0 l/m 0 min 0 min 5 W/m 10,5 km/h (2 Bft) 97,87 %
26.11.2016 00:32 4,4 C 5,0 C 3,3 C 82 % 0 lf 1020,1 hPa 0,0 l/m 0 min 0 min 5 W/m 14,6 km/h (3 Bft) 95,74 %
26.11.2016 00:34 4,4 C 5,0 C 3,3 C 81 % 0 lf 1020,1 hPa 0,0 l/m 0 min 0 min 5 W/m 10,5 km/h (2 Bft) 93,62 %
26.11.2016 00:36 4,4 C 5,0 C 3,3 C 81 % 0 lf 1020,0 hPa 0,0 l/m 0 min 0 min 5 W/m 6,3 km/h (2 Bft) 89,36 %
26.11.2016 00:38 4,4 C 5,0 C 3,3 C 81 % 0 lf 1020,0 hPa 0,0 l/m 0 min 0 min 5 W/m 6,3 km/h (2 Bft) 95,65 %
26.11.2016 00:40 4,4 C 5,0 C 3,3 C 81 % 0 lf 1020,1 hPa 0,0 l/m 0 min 0 min 5 W/m 8,4 km/h (2 Bft) 93,62 %
26.11.2016 00:42 4,4 C 5,0 C 3,3 C 81 % 0 lf 1020,1 hPa 0,0 l/m 0 min 0 min 5 W/m 10,5 km/h (2 Bft) 93,62 %
26.11.2016 00:44 4,4 C 5,0 C 3,3 C 81 % 0 lf 1020,1 hPa 0,0 l/m 0 min 0 min 5 W/m 8,4 km/h (2 Bft) 95,74 %
26.11.2016 00:46 4,4 C 5,0 C 3,3 C 81 % 0 lf 1020,1 hPa 0,0 l/m 0 min 0 min 5 W/m 10,5 km/h (2 Bft) 93,62 %
26.11.2016 00:48 4,4 C 5,0 C 3,3 C 81 % 0 lf 1020,1 hPa 0,0 l/m 0 min 0 min 5 W/m 8,4 km/h (2 Bft) 95,74 %
26.11.2016 00:50 4,4 C 5,0 C 3,3 C 81 % 0 lf 1020,1 hPa 0,0 l/m 0 min 0 min 5 W/m 8,4 km/h (2 Bft) 93,48 %
26.11.2016 00:52 4,4 C 5,0 C 3,3 C 81 % 0 lf 1020,1 hPa 0,0 l/m 0 min 0 min 5 W/m 8,4 km/h (2 Bft) 95,74 %
26.11.2016 00:54 4,4 C 5,0 C 3,3 C 81 % 0 lf 1020,1 hPa 0,0 l/m 0 min 0 min 5 W/m 8,4 km/h (2 Bft) 95,74 %
26.11.2016 00:56 4,4 C 5,0 C 3,3 C 81 % 0 lf 1020,1 hPa 0,0 l/m 0 min 0 min 5 W/m 6,3 km/h (2 Bft) 91,49 %
26.11.2016 00:58 4,4 C 5,0 C 3,3 C 81 % 0 lf 1020,1 hPa 0,0 l/m 0 min 0 min 5 W/m 6,3 km/h (2 Bft) 97,87 %
26.11.2016 01:00 4,5 C 5,0 C 3,3 C 81 % 0 lf 1020,0 hPa 0,0 l/m 0 min 0 min 5 W/m 8,4 km/h (2 Bft) 95,65 %
26.11.2016 01:02 4,5 C 5,0 C 3,3 C 81 % 0 lf 1020,1 hPa 0,0 l/m 0 min 0 min 5 W/m 6,3 km/h (2 Bft) 97,87 %
26.11.2016 01:04 4,5 C 5,0 C 3,3 C 81 % 0 lf 1020,0 hPa 0,0 l/m 0 min 0 min 5 W/m 10,5 km/h (2 Bft) 95,74 %
26.11.2016 01:06 4,5 C 5,0 C 3,3 C 81 % 0 lf 1020,0 hPa 0,0 l/m 0 min 0 min 5 W/m 10,5 km/h (2 Bft) 97,87 %
26.11.2016 01:08 4,5 C 5,0 C 3,3 C 81 % 0 lf 1020,0 hPa 0,0 l/m 0 min 0 min 5 W/m 14,6 km/h (3 Bft) 91,49 %
26.11.2016 01:10 4,5 C 5,0 C 3,9 C 81 % 0 lf 1020,0 hPa 0,0 l/m 0 min 0 min 5 W/m 8,4 km/h (2 Bft) 95,74 %
26.11.2016 01:12 4,6 C 5,0 C 3,9 C 81 % 0 lf 1020,0 hPa 0,0 l/m 0 min 0 min 5 W/m 6,3 km/h (2 Bft) 97,87 %
26.11.2016 01:14 4,6 C 5,0 C 3,9 C 81 % 0 lf 1020,0 hPa 0,0 l/m 0 min 0 min 5 W/m 6,3 km/h (2 Bft) 95,65 %
26.11.2016 01:16 4,6 C 5,0 C 3,3 C 81 % 0 lf 1020,0 hPa 0,0 l/m 0 min 0 min 5 W/m 4,2 km/h (1 Bft) 100,00 %
26.11.2016 01:18 4,6 C 5,0 C 3,3 C 81 % 0 lf 1020,0 hPa 0,0 l/m 0 min 0 min 5 W/m 6,3 km/h (2 Bft) 97,87 %
26.11.2016 01:20 4,6 C 5,0 C 3,3 C 81 % 0 lf 1020,0 hPa 0,0 l/m 0 min 0 min 5 W/m 6,3 km/h (2 Bft) 95,74 %
26.11.2016 01:22 4,6 C 5,0 C 3,3 C 81 % 0 lf 1020,0 hPa 0,0 l/m 0 min 0 min 5 W/m 4,2 km/h (1 Bft) 95,74 %
26.11.2016 01:24 4,6 C 5,0 C 3,3 C 81 % 0 lf 1020,0 hPa 0,0 l/m 0 min 0 min 5 W/m 6,3 km/h (2 Bft) 97,83 %
26.11.2016 01:26 4,6 C 5,0 C 3,3 C 82 % 0 lf 1020,0 hPa 0,0 l/m 0 min 0 min 5 W/m 6,3 km/h (2 Bft) 95,74 %
26.11.2016 01:28 4,6 C 5,0 C 3,3 C 82 % 0 lf 1019,9 hPa 0,0 l/m 0 min 0 min 5 W/m 6,3 km/h (2 Bft) 97,87 %
26.11.2016 01:30 4,6 C 5,0 C 3,3 C 82 % 0 lf 1019,9 hPa 0,0 l/m 0 min 0 min 5 W/m 6,3 km/h (2 Bft) 95,74 %
26.11.2016 01:32 4,6 C 5,0 C 3,3 C 82 % 0 lf 1020,0 hPa 0,0 l/m 0 min 0 min 5 W/m 8,4 km/h (2 Bft) 93,62 %
26.11.2016 01:34 4,7 C 5,0 C 3,3 C 82 % 0 lf 1020,0 hPa 0,0 l/m 0 min 0 min 5 W/m 8,4 km/h (2 Bft) 97,87 %
26.11.2016 01:36 4,6 C 5,0 C 3,3 C 82 % 0 lf 1019,9 hPa 0,0 l/m 0 min 0 min 5 W/m 10,5 km/h (2 Bft) 97,83 %
26.11.2016 01:38 4,6 C 5,0 C 3,3 C 82 % 0 lf 1019,9 hPa 0,0 l/m 0 min 0 min 5 W/m 6,3 km/h (2 Bft) 97,87 %
26.11.2016 01:40 4,7 C 5,0 C 3,3 C 82 % 0 lf 1019,9 hPa 0,0 l/m 0 min 0 min 5 W/m 8,4 km/h (2 Bft) 97,87 %
26.11.2016 01:42 4,6 C 5,0 C 3,3 C 82 % 0 lf 1020,0 hPa 0,0 l/m 0 min 0 min 5 W/m 8,4 km/h (2 Bft) 93,62 %
26.11.2016 01:44 4,7 C 5,0 C 3,3 C 82 % 0 lf 1020,0 hPa 0,0 l/m 0 min 0 min 5 W/m 6,3 km/h (2 Bft) 97,87 %
26.11.2016 01:46 4,7 C 5,0 C 3,3 C 82 % 0 lf 1020,0 hPa 0,0 l/m 0 min 0 min 5 W/m 6,3 km/h (2 Bft) 95,74 %
26.11.2016 01:48 4,7 C 5,0 C 3,3 C 82 % 0 lf 1019,9 hPa 0,0 l/m 0 min 0 min 5 W/m 6,3 km/h (2 Bft) 93,48 %
26.11.2016 01:50 4,7 C 5,0 C 3,3 C 82 % 0 lf 1020,0 hPa 0,0 l/m 0 min 0 min 5 W/m 6,3 km/h (2 Bft) 95,74 %
26.11.2016 01:52 4,7 C 5,0 C 3,3 C 82 % 0 lf 1019,9 hPa 0,0 l/m 0 min 0 min 5 W/m 6,3 km/h (2 Bft) 93,62 %
26.11.2016 01:54 4,7 C 5,0 C 3,3 C 82 % 0 lf 1019,9 hPa 0,0 l/m 0 min 0 min 5 W/m 6,3 km/h (2 Bft) 95,74 %
26.11.2016 01:56 4,7 C 5,0 C 3,3 C 82 % 0 lf 1020,0 hPa 0,0 l/m 0 min 0 min 5 W/m 4,2 km/h (1 Bft) 95,74 %
26.11.2016 01:58 4,7 C 5,0 C 3,3 C 82 % 0 lf 1020,0 hPa 0,0 l/m 0 min 0 min 5 W/m 4,2 km/h (1 Bft) 95,74 %
26.11.2016 02:00 4,7 C 5,0 C 3,3 C 82 % 0 lf 1020,0 hPa 0,0 l/m 0 min 0 min 5 W/m 8,4 km/h (2 Bft) 95,65 %
26.11.2016 02:02 4,7 C 5,0 C 3,3 C 82 % 0 lf 1019,9 hPa 0,0 l/m 0 min 0 min 5 W/m 6,3 km/h (2 Bft) 97,87 %
26.11.2016 02:04 4,7 C 5,0 C 3,3 C 82 % 0 lf 1020,0 hPa 0,0 l/m 0 min 0 min 5 W/m 4,2 km/h (1 Bft) 95,74 %
26.11.2016 02:06 4,7 C 5,0 C 3,3 C 82 % 0 lf 1020,0 hPa 0,0 l/m 0 min 0 min 5 W/m 6,3 km/h (2 Bft) 97,87 %
26.11.2016 02:08 4,7 C 5,0 C 3,3 C 82 % 0 lf 1020,0 hPa 0,0 l/m 0 min 0 min 5 W/m 6,3 km/h (2 Bft) 97,87 %
26.11.2016 02:10 4,7 C 5,0 C 3,3 C 82 % 0 lf 1020,0 hPa 0,0 l/m 0 min 0 min 5 W/m 10,5 km/h (2 Bft) 97,87 %
26.11.2016 02:12 4,7 C 5,0 C 3,3 C 82 % 0 lf 1020,0 hPa 0,0 l/m 0 min 0 min 5 W/m 6,3 km/h (2 Bft) 93,48 %
26.11.2016 02:14 4,7 C 5,0 C 3,3 C 82 % 0 lf 1020,0 hPa 0,0 l/m 0 min 0 min 5 W/m 4,2 km/h (1 Bft) 97,87 %
26.11.2016 02:16 4,7 C 5,0 C 3,3 C 82 % 0 lf 1020,0 hPa 0,0 l/m 0 min 0 min 5 W/m 6,3 km/h (2 Bft) 97,87 %
26.11.2016 02:18 4,7 C 5,0 C 3,3 C 82 % 0 lf 1020,0 hPa 0,0 l/m 0 min 0 min 5 W/m 6,3 km/h (2 Bft) 95,74 %
26.11.2016 02:20 4,7 C 5,0 C 3,3 C 82 % 0 lf 1020,1 hPa 0,0 l/m 0 min 0 min 5 W/m 6,3 km/h (2 Bft) 93,62 %
26.11.2016 02:22 4,7 C 5,0 C 3,3 C 82 % 0 lf 1020,0 hPa 0,0 l/m 0 min 0 min 5 W/m 6,3 km/h (2 Bft) 93,48 %
26.11.2016 02:24 4,7 C 5,0 C 3,3 C 82 % 0 lf 1020,1 hPa 0,0 l/m 0 min 0 min 5 W/m 4,2 km/h (1 Bft) 95,74 %
26.11.2016 02:26 4,7 C 5,0 C 3,3 C 82 % 0 lf 1020,1 hPa 0,0 l/m 0 min 0 min 5 W/m 6,3 km/h (2 Bft) 97,87 %
26.11.2016 02:28 4,7 C 5,0 C 3,3 C 82 % 0 lf 1020,1 hPa 0,0 l/m 0 min 0 min 5 W/m 6,3 km/h (2 Bft) 97,87 %
26.11.2016 02:30 4,7 C 5,0 C 3,3 C 82 % 0 lf 1020,0 hPa 0,0 l/m 0 min 0 min 5 W/m 2,1 km/h (1 Bft) 95,74 %
26.11.2016 02:32 4,7 C 5,0 C 3,3 C 82 % 0 lf 1020,0 hPa 0,0 l/m 0 min 0 min 5 W/m 2,1 km/h (1 Bft) 97,87 %
26.11.2016 02:34 4,7 C 5,0 C 3,3 C 82 % 0 lf 1020,1 hPa 0,0 l/m 0 min 0 min 5 W/m 4,2 km/h (1 Bft) 97,83 %
26.11.2016 02:36 4,7 C 5,0 C 3,3 C 82 % 0 lf 1020,1 hPa 0,0 l/m 0 min 0 min 5 W/m 6,3 km/h (2 Bft) 95,74 %
26.11.2016 02:38 4,7 C 5,0 C 3,3 C 82 % 0 lf 1020,1 hPa 0,0 l/m 0 min 0 min 5 W/m 6,3 km/h (2 Bft) 95,74 %
26.11.2016 02:40 4,7 C 5,0 C 3,3 C 82 % 0 lf 1020,1 hPa 0,0 l/m 0 min 0 min 5 W/m 2,1 km/h (1 Bft) 97,87 %
26.11.2016 02:42 4,7 C 4,4 C 3,3 C 82 % 0 lf 1020,0 hPa 0,0 l/m 0 min 0 min 5 W/m 2,1 km/h (1 Bft) 95,74 %
26.11.2016 02:44 4,7 C 4,4 C 3,3 C 83 % 0 lf 1020,1 hPa 0,0 l/m 0 min 0 min 5 W/m 2,1 km/h (1 Bft) 95,74 %
26.11.2016 02:46 4,7 C 4,4 C 3,3 C 83 % 0 lf 1020,0 hPa 0,0 l/m 0 min 0 min 5 W/m 0,0 km/h (0 Bft) 95,65 %
26.11.2016 02:48 4,7 C 4,4 C 3,3 C 83 % 0 lf 1020,0 hPa 0,0 l/m 0 min 0 min 5 W/m 4,2 km/h (1 Bft) 95,74 %
26.11.2016 02:50 4,7 C 4,4 C 3,3 C 83 % 0 lf 1020,0 hPa 0,0 l/m 0 min 0 min 5 W/m 4,2 km/h (1 Bft) 95,74 %
26.11.2016 02:52 4,7 C 4,4 C 3,3 C 83 % 0 lf 1020,1 hPa 0,0 l/m 0 min 0 min 5 W/m 6,3 km/h (2 Bft) 93,62 %
26.11.2016 02:54 4,7 C 4,4 C 3,3 C 83 % 0 lf 1020,1 hPa 0,0 l/m 0 min 0 min 5 W/m 6,3 km/h (2 Bft) 95,74 %
26.11.2016 02:56 4,6 C 4,4 C 3,3 C 83 % 0 lf 1020,0 hPa 0,0 l/m 0 min 0 min 5 W/m 4,2 km/h (1 Bft) 95,74 %
26.11.2016 02:58 4,7 C 4,4 C 3,3 C 83 % 0 lf 1020,1 hPa 0,0 l/m 0 min 0 min 5 W/m 6,3 km/h (2 Bft) 95,65 %
26.11.2016 03:00 4,6 C 4,4 C 3,3 C 83 % 0 lf 1020,1 hPa 0,0 l/m 0 min 0 min 5 W/m 6,3 km/h (2 Bft) 95,74 %
26.11.2016 03:02 4,6 C 4,4 C 3,3 C 83 % 0 lf 1020,0 hPa 0,0 l/m 0 min 0 min 5 W/m 8,4 km/h (2 Bft) 91,49 %
26.11.2016 03:04 4,6 C 4,4 C 3,3 C 84 % 0 lf 1020,0 hPa 0,0 l/m 0 min 0 min 5 W/m 8,4 km/h (2 Bft) 93,62 %
26.11.2016 03:06 4,6 C 4,4 C 3,3 C 84 % 0 lf 1020,0 hPa 0,0 l/m 0 min 0 min 5 W/m 8,4 km/h (2 Bft) 91,49 %
26.11.2016 03:08 4,6 C 4,4 C 3,3 C 84 % 0 lf 1020,0 hPa 0,0 l/m 0 min 0 min 5 W/m 6,3 km/h (2 Bft) 95,74 %
26.11.2016 03:10 4,6 C 4,4 C 3,3 C 84 % 0 lf 1020,0 hPa 0,0 l/m 0 min 0 min 5 W/m 6,3 km/h (2 Bft) 93,48 %
26.11.2016 03:12 4,6 C 4,4 C 3,3 C 84 % 0 lf 1020,0 hPa 0,0 l/m 0 min 0 min 5 W/m 6,3 km/h (2 Bft) 93,62 %
26.11.2016 03:14 4,5 C 4,4 C 3,3 C 84 % 0 lf 1019,9 hPa 0,0 l/m 0 min 0 min 5 W/m 8,4 km/h (2 Bft) 91,49 %
26.11.2016 03:16 4,5 C 4,4 C 3,3 C 84 % 0 lf 1019,9 hPa 0,0 l/m 0 min 0 min 5 W/m 8,4 km/h (2 Bft) 91,49 %
26.11.2016 03:18 4,4 C 4,4 C 3,3 C 84 % 0 lf 1019,9 hPa 0,0 l/m 0 min 0 min 5 W/m 8,4 km/h (2 Bft) 89,36 %
26.11.2016 03:20 4,4 C 4,4 C 3,3 C 84 % 0 lf 1019,9 hPa 0,0 l/m 0 min 0 min 5 W/m 6,3 km/h (2 Bft) 93,48 %
26.11.2016 03:22 4,4 C 4,4 C 3,3 C 84 % 0 lf 1019,9 hPa 0,0 l/m 0 min 0 min 5 W/m 10,5 km/h (2 Bft) 91,49 %
26.11.2016 03:24 4,4 C 4,4 C 3,3 C 84 % 0 lf 1019,9 hPa 0,0 l/m 0 min 0 min 5 W/m 6,3 km/h (2 Bft) 93,62 %
26.11.2016 03:26 4,4 C 4,4 C 3,3 C 84 % 0 lf 1019,8 hPa 0,0 l/m 0 min 0 min 5 W/m 6,3 km/h (2 Bft) 91,49 %
26.11.2016 03:28 4,3 C 4,4 C 3,3 C 84 % 0 lf 1019,9 hPa 0,0 l/m 0 min 0 min 5 W/m 6,3 km/h (2 Bft) 91,49 %
26.11.2016 03:30 4,3 C 4,4 C 3,3 C 84 % 0 lf 1019,9 hPa 0,0 l/m 0 min 0 min 5 W/m 6,3 km/h (2 Bft) 93,62 %
26.11.2016 03:32 4,3 C 4,4 C 3,3 C 84 % 0 lf 1019,9 hPa 0,0 l/m 0 min 0 min 5 W/m 8,4 km/h (2 Bft) 93,48 %
26.11.2016 03:34 4,3 C 4,4 C 3,3 C 84 % 0 lf 1019,9 hPa 0,0 l/m 0 min 0 min 5 W/m 6,3 km/h (2 Bft) 91,49 %
26.11.2016 03:36 4,3 C 4,4 C 2,8 C 84 % 0 lf 1019,8 hPa 0,0 l/m 0 min 0 min 5 W/m 6,3 km/h (2 Bft) 89,36 %
26.11.2016 03:38 4,2 C 4,4 C 2,8 C 84 % 0 lf 1019,8 hPa 0,0 l/m 0 min 0 min 5 W/m 8,4 km/h (2 Bft) 93,62 %
26.11.2016 03:40 4,2 C 4,4 C 2,8 C 85 % 0 lf 1019,8 hPa 0,0 l/m 0 min 0 min 5 W/m 6,3 km/h (2 Bft) 89,36 %
26.11.2016 03:42 4,2 C 4,4 C 2,8 C 85 % 0 lf 1019,8 hPa 0,0 l/m 0 min 0 min 5 W/m 6,3 km/h (2 Bft) 89,36 %
26.11.2016 03:44 4,2 C 3,9 C 2,8 C 85 % 0 lf 1019,7 hPa 0,0 l/m 0 min 0 min 5 W/m 8,4 km/h (2 Bft) 93,48 %
26.11.2016 03:46 4,2 C 3,9 C 2,8 C 85 % 0 lf 1019,7 hPa 0,0 l/m 0 min 0 min 5 W/m 6,3 km/h (2 Bft) 93,62 %
26.11.2016 03:48 4,2 C 3,9 C 2,8 C 84 % 0 lf 1019,7 hPa 0,0 l/m 0 min 0 min 5 W/m 8,4 km/h (2 Bft) 93,62 %
26.11.2016 03:50 4,1 C 3,9 C 2,8 C 85 % 0 lf 1019,7 hPa 0,0 l/m 0 min 0 min 5 W/m 8,4 km/h (2 Bft) 95,74 %
26.11.2016 03:52 4,1 C 3,9 C 2,8 C 85 % 0 lf 1019,7 hPa 0,0 l/m 0 min 0 min 5 W/m 6,3 km/h (2 Bft) 93,62 %
26.11.2016 03:54 4,1 C 3,9 C 2,8 C 85 % 0 lf 1019,7 hPa 0,0 l/m 0 min 0 min 5 W/m 6,3 km/h (2 Bft) 95,74 %
26.11.2016 03:56 4,1 C 3,9 C 2,8 C 85 % 0 lf 1019,6 hPa 0,0 l/m 0 min 0 min 5 W/m 8,4 km/h (2 Bft) 97,83 %
26.11.2016 03:58 4,0 C 3,9 C 2,8 C 85 % 0 lf 1019,7 hPa 0,0 l/m 0 min 0 min 5 W/m 4,2 km/h (1 Bft) 97,87 %
26.11.2016 04:00 4,0 C 3,9 C 2,8 C 85 % 0 lf 1019,6 hPa 0,0 l/m 0 min 0 min 5 W/m 6,3 km/h (2 Bft) 95,74 %
26.11.2016 04:02 4,0 C 3,9 C 2,8 C 85 % 0 lf 1019,7 hPa 0,0 l/m 0 min 0 min 5 W/m 4,2 km/h (1 Bft) 100,00 %
26.11.2016 04:04 3,9 C 3,9 C 2,8 C 85 % 0 lf 1019,6 hPa 0,0 l/m 0 min 0 min 5 W/m 4,2 km/h (1 Bft) 95,74 %
26.11.2016 04:06 3,9 C 3,9 C 2,8 C 85 % 0 lf 1019,6 hPa 0,0 l/m 0 min 0 min 5 W/m 6,3 km/h (2 Bft) 97,87 %
26.11.2016 04:08 3,9 C 3,9 C 2,8 C 85 % 0 lf 1019,5 hPa 0,0 l/m 0 min 0 min 5 W/m 6,3 km/h (2 Bft) 97,83 %
26.11.2016 04:10 3,9 C 3,9 C 2,8 C 85 % 0 lf 1019,5 hPa 0,0 l/m 0 min 0 min 5 W/m 8,4 km/h (2 Bft) 97,87 %
26.11.2016 04:12 3,9 C 3,9 C 2,8 C 85 % 0 lf 1019,6 hPa 0,0 l/m 0 min 0 min 5 W/m 6,3 km/h (2 Bft) 100,00 %
26.11.2016 04:14 3,9 C 3,9 C 2,8 C 85 % 0 lf 1019,6 hPa 0,0 l/m 0 min 0 min 5 W/m 6,3 km/h (2 Bft) 97,87 %
26.11.2016 04:16 3,9 C 3,9 C 2,8 C 85 % 0 lf 1019,6 hPa 0,0 l/m 0 min 0 min 5 W/m 6,3 km/h (2 Bft) 97,87 %
26.11.2016 04:18 3,8 C 3,9 C 2,8 C 85 % 0 lf 1019,6 hPa 0,0 l/m 0 min 0 min 5 W/m 8,4 km/h (2 Bft) 100,00 %
26.11.2016 04:20 3,8 C 3,9 C 2,8 C 85 % 0 lf 1019,6 hPa 0,0 l/m 0 min 0 min 5 W/m 8,4 km/h (2 Bft) 97,83 %
26.11.2016 04:22 3,8 C 3,9 C 2,8 C 85 % 0 lf 1019,6 hPa 0,0 l/m 0 min 0 min 5 W/m 12,6 km/h (3 Bft) 95,74 %
26.11.2016 04:24 3,8 C 3,9 C 2,8 C 85 % 0 lf 1019,6 hPa 0,0 l/m 0 min 0 min 5 W/m 8,4 km/h (2 Bft) 100,00 %
26.11.2016 04:26 3,8 C 3,9 C 2,8 C 85 % 0 lf 1019,6 hPa 0,0 l/m 0 min 0 min 5 W/m 8,4 km/h (2 Bft) 100,00 %
26.11.2016 04:28 3,8 C 3,9 C 2,8 C 85 % 0 lf 1019,6 hPa 0,0 l/m 0 min 0 min 5 W/m 6,3 km/h (2 Bft) 100,00 %
26.11.2016 04:30 3,7 C 3,9 C 2,8 C 85 % 0 lf 1019,6 hPa 0,0 l/m 0 min 0 min 5 W/m 4,2 km/h (1 Bft) 93,48 %
26.11.2016 04:32 3,7 C 3,9 C 2,8 C 85 % 0 lf 1019,6 hPa 0,0 l/m 0 min 0 min 5 W/m 4,2 km/h (1 Bft) 97,87 %
26.11.2016 04:34 3,7 C 3,9 C 2,8 C 85 % 0 lf 1019,6 hPa 0,0 l/m 0 min 0 min 5 W/m 4,2 km/h (1 Bft) 97,87 %
26.11.2016 04:36 3,7 C 3,9 C 2,8 C 85 % 0 lf 1019,6 hPa 0,0 l/m 0 min 0 min 5 W/m 4,2 km/h (1 Bft) 100,00 %
26.11.2016 04:38 3,7 C 3,9 C 2,8 C 85 % 0 lf 1019,6 hPa 0,0 l/m 0 min 0 min 5 W/m 6,3 km/h (2 Bft) 100,00 %
26.11.2016 04:40 3,7 C 3,9 C 2,8 C 85 % 0 lf 1019,6 hPa 0,0 l/m 0 min 0 min 5 W/m 8,4 km/h (2 Bft) 100,00 %
26.11.2016 04:42 3,7 C 3,9 C 2,8 C 85 % 0 lf 1019,6 hPa 0,0 l/m 0 min 0 min 5 W/m 6,3 km/h (2 Bft) 100,00 %
26.11.2016 04:44 3,7 C 3,9 C 2,8 C 85 % 0 lf 1019,5 hPa 0,0 l/m 0 min 0 min 5 W/m 6,3 km/h (2 Bft) 100,00 %
26.11.2016 04:46 3,7 C 3,9 C 2,8 C 85 % 0 lf 1019,6 hPa 0,0 l/m 0 min 0 min 5 W/m 4,2 km/h (1 Bft) 100,00 %
26.11.2016 04:48 3,7 C 3,9 C 2,8 C 85 % 0 lf 1019,5 hPa 0,0 l/m 0 min 0 min 5 W/m 6,3 km/h (2 Bft) 95,74 %
26.11.2016 04:50 3,6 C 3,9 C 2,8 C 85 % 0 lf 1019,5 hPa 0,0 l/m 0 min 0 min 5 W/m 8,4 km/h (2 Bft) 95,74 %
26.11.2016 04:52 3,6 C 3,9 C 2,8 C 85 % 0 lf 1019,6 hPa 0,0 l/m 0 min 0 min 5 W/m 6,3 km/h (2 Bft) 97,87 %
26.11.2016 04:54 3,6 C 3,9 C 2,8 C 85 % 0 lf 1019,5 hPa 0,0 l/m 0 min 0 min 5 W/m 6,3 km/h (2 Bft) 97,83 %
26.11.2016 04:56 3,6 C 3,9 C 2,8 C 85 % 0 lf 1019,5 hPa 0,0 l/m 0 min 0 min 5 W/m 6,3 km/h (2 Bft) 100,00 %
26.11.2016 04:58 3,6 C 3,9 C 2,8 C 85 % 0 lf 1019,5 hPa 0,0 l/m 0 min 0 min 5 W/m 4,2 km/h (1 Bft) 93,62 %
26.11.2016 05:00 3,6 C 3,9 C 2,8 C 86 % 0 lf 1019,5 hPa 0,0 l/m 0 min 0 min 5 W/m 4,2 km/h (1 Bft) 95,74 %
26.11.2016 05:02 3,6 C 3,9 C 2,8 C 86 % 0 lf 1019,5 hPa 0,0 l/m 0 min 0 min 5 W/m 4,2 km/h (1 Bft) 97,87 %
26.11.2016 05:04 3,6 C 3,9 C 2,8 C 86 % 0 lf 1019,4 hPa 0,0 l/m 0 min 0 min 5 W/m 4,2 km/h (1 Bft) 95,74 %
26.11.2016 05:06 3,6 C 3,9 C 2,8 C 86 % 0 lf 1019,4 hPa 0,0 l/m 0 min 0 min 5 W/m 6,3 km/h (2 Bft) 93,48 %
26.11.2016 05:08 3,6 C 3,9 C 2,8 C 86 % 0 lf 1019,4 hPa 0,0 l/m 0 min 0 min 5 W/m 4,2 km/h (1 Bft) 95,74 %
26.11.2016 05:10 3,6 C 3,9 C 2,8 C 86 % 0 lf 1019,4 hPa 0,0 l/m 0 min 0 min 5 W/m 4,2 km/h (1 Bft) 97,87 %
26.11.2016 05:12 3,6 C 3,9 C 2,8 C 86 % 0 lf 1019,4 hPa 0,0 l/m 0 min 0 min 5 W/m 4,2 km/h (1 Bft) 97,87 %
26.11.2016 05:14 3,6 C 3,9 C 2,8 C 86 % 0 lf 1019,4 hPa 0,0 l/m 0 min 0 min 5 W/m 2,1 km/h (1 Bft) 95,74 %
26.11.2016 05:16 3,5 C 3,9 C 2,8 C 86 % 0 lf 1019,3 hPa 0,0 l/m 0 min 0 min 5 W/m 6,3 km/h (2 Bft) 93,62 %
26.11.2016 05:18 3,5 C 3,9 C 2,8 C 86 % 0 lf 1019,4 hPa 0,0 l/m 0 min 0 min 5 W/m 4,2 km/h (1 Bft) 95,65 %
26.11.2016 05:20 3,5 C 3,9 C 2,8 C 86 % 0 lf 1019,4 hPa 0,0 l/m 0 min 0 min 5 W/m 2,1 km/h (1 Bft) 95,74 %
26.11.2016 05:22 3,5 C 3,9 C 2,8 C 86 % 0 lf 1019,4 hPa 0,0 l/m 0 min 0 min 5 W/m 4,2 km/h (1 Bft) 95,74 %
26.11.2016 05:24 3,5 C 3,9 C 2,8 C 86 % 0 lf 1019,3 hPa 0,0 l/m 0 min 0 min 5 W/m 4,2 km/h (1 Bft) 97,87 %
26.11.2016 05:26 3,5 C 3,9 C 2,8 C 86 % 0 lf 1019,3 hPa 0,0 l/m 0 min 0 min 5 W/m 6,3 km/h (2 Bft) 97,87 %
26.11.2016 05:28 3,5 C 3,9 C 2,8 C 86 % 0 lf 1019,3 hPa 0,0 l/m 0 min 0 min 5 W/m 6,3 km/h (2 Bft) 97,87 %
26.11.2016 05:30 3,5 C 3,9 C 2,8 C 86 % 0 lf 1019,4 hPa 0,0 l/m 0 min 0 min 5 W/m 4,2 km/h (1 Bft) 95,65 %
26.11.2016 05:32 3,5 C 3,9 C 2,8 C 86 % 0 lf 1019,4 hPa 0,0 l/m 0 min 0 min 5 W/m 4,2 km/h (1 Bft) 95,74 %
26.11.2016 05:34 3,5 C 3,9 C 2,8 C 87 % 0 lf 1019,5 hPa 0,0 l/m 0 min 0 min 5 W/m 4,2 km/h (1 Bft) 100,00 %
26.11.2016 05:36 3,5 C 3,9 C 2,8 C 86 % 0 lf 1019,4 hPa 0,0 l/m 0 min 0 min 5 W/m 4,2 km/h (1 Bft) 97,87 %
26.11.2016 05:38 3,5 C 3,9 C 2,8 C 86 % 0 lf 1019,3 hPa 0,0 l/m 0 min 0 min 5 W/m 4,2 km/h (1 Bft) 97,87 %
26.11.2016 05:40 3,5 C 3,9 C 2,8 C 86 % 0 lf 1019,4 hPa 0,0 l/m 0 min 0 min 5 W/m 4,2 km/h (1 Bft) 100,00 %
26.11.2016 05:42 3,5 C 3,9 C 2,8 C 87 % 0 lf 1019,4 hPa 0,0 l/m 0 min 0 min 5 W/m 6,3 km/h (2 Bft) 97,87 %
26.11.2016 05:44 3,5 C 3,9 C 2,8 C 87 % 0 lf 1019,3 hPa 0,0 l/m 0 min 0 min 5 W/m 4,2 km/h (1 Bft) 100,00 %
26.11.2016 05:46 3,5 C 3,9 C 2,8 C 87 % 0 lf 1019,4 hPa 0,0 l/m 0 min 0 min 5 W/m 6,3 km/h (2 Bft) 93,62 %
26.11.2016 05:48 3,5 C 3,9 C 2,8 C 87 % 0 lf 1019,4 hPa 0,0 l/m 0 min 0 min 5 W/m 8,4 km/h (2 Bft) 100,00 %
26.11.2016 05:50 3,5 C 3,9 C 2,8 C 87 % 0 lf 1019,5 hPa 0,0 l/m 0 min 0 min 5 W/m 8,4 km/h (2 Bft) 100,00 %
26.11.2016 05:52 3,5 C 3,9 C 2,8 C 87 % 0 lf 1019,4 hPa 0,0 l/m 0 min 0 min 5 W/m 6,3 km/h (2 Bft) 95,65 %
26.11.2016 05:54 3,5 C 3,9 C 2,8 C 87 % 0 lf 1019,5 hPa 0,0 l/m 0 min 0 min 5 W/m 6,3 km/h (2 Bft) 95,74 %
26.11.2016 05:56 3,4 C 3,9 C 2,8 C 87 % 0 lf 1019,4 hPa 0,0 l/m 0 min 0 min 5 W/m 4,2 km/h (1 Bft) 97,87 %
26.11.2016 05:58 3,4 C 3,9 C 2,8 C 87 % 0 lf 1019,5 hPa 0,0 l/m 0 min 0 min 5 W/m 2,1 km/h (1 Bft) 87,23 %
26.11.2016 06:00 3,5 C 3,9 C 2,8 C 87 % 0 lf 1019,4 hPa 0,0 l/m 0 min 0 min 5 W/m 6,3 km/h (2 Bft) 93,62 %
26.11.2016 06:02 3,5 C 3,9 C 2,8 C 87 % 0 lf 1019,4 hPa 0,0 l/m 0 min 0 min 5 W/m 6,3 km/h (2 Bft) 95,74 %
26.11.2016 06:06 3,4 C 3,9 C 2,8 C 87 % 0 lf 1019,4 hPa 0,0 l/m 0 min 0 min 5 W/m 6,3 km/h (2 Bft) 91,40 %
26.11.2016 06:08 3,4 C 3,9 C 2,8 C 87 % 0 lf 1019,3 hPa 0,0 l/m 0 min 0 min 5 W/m 4,2 km/h (1 Bft) 91,49 %
26.11.2016 06:10 3,5 C 3,9 C 2,2 C 88 % 0 lf 1019,3 hPa 0,0 l/m 0 min 0 min 5 W/m 6,3 km/h (2 Bft) 89,36 %
26.11.2016 06:12 3,4 C 3,3 C 2,2 C 88 % 0 lf 1019,3 hPa 0,0 l/m 0 min 0 min 5 W/m 8,4 km/h (2 Bft) 91,49 %
26.11.2016 06:14 3,4 C 3,3 C 2,2 C 88 % 0 lf 1019,4 hPa 0,0 l/m 0 min 0 min 5 W/m 6,3 km/h (2 Bft) 93,62 %
26.11.2016 06:16 3,4 C 3,3 C 2,2 C 88 % 0 lf 1019,4 hPa 0,0 l/m 0 min 0 min 5 W/m 4,2 km/h (1 Bft) 89,13 %
26.11.2016 06:18 3,4 C 3,3 C 2,2 C 88 % 0 lf 1019,4 hPa 0,0 l/m 0 min 0 min 5 W/m 4,2 km/h (1 Bft) 91,49 %
26.11.2016 06:20 3,4 C 3,3 C 2,2 C 88 % 0 lf 1019,5 hPa 0,0 l/m 0 min 0 min 5 W/m 6,3 km/h (2 Bft) 91,49 %
26.11.2016 06:22 3,4 C 3,3 C 2,2 C 88 % 0 lf 1019,5 hPa 0,0 l/m 0 min 0 min 5 W/m 6,3 km/h (2 Bft) 93,62 %
26.11.2016 06:24 3,4 C 3,3 C 2,2 C 87 % 0 lf 1019,5 hPa 0,0 l/m 0 min 0 min 5 W/m 8,4 km/h (2 Bft) 93,62 %
26.11.2016 06:26 3,4 C 3,3 C 2,2 C 87 % 0 lf 1019,5 hPa 0,0 l/m 0 min 0 min 5 W/m 8,4 km/h (2 Bft) 91,49 %
26.11.2016 06:28 3,4 C 3,3 C 2,2 C 87 % 0 lf 1019,4 hPa 0,0 l/m 0 min 0 min 5 W/m 10,5 km/h (2 Bft) 91,30 %
26.11.2016 06:30 3,4 C 3,3 C 2,2 C 88 % 0 lf 1019,4 hPa 0,0 l/m 0 min 0 min 5 W/m 10,5 km/h (2 Bft) 89,36 %
26.11.2016 06:32 3,4 C 3,3 C 2,2 C 88 % 0 lf 1019,4 hPa 0,0 l/m 0 min 0 min 5 W/m 6,3 km/h (2 Bft) 93,62 %
26.11.2016 06:34 3,4 C 3,3 C 2,2 C 88 % 0 lf 1019,4 hPa 0,0 l/m 0 min 0 min 5 W/m 8,4 km/h (2 Bft) 91,49 %
26.11.2016 06:36 3,4 C 3,3 C 2,2 C 88 % 0 lf 1019,4 hPa 0,0 l/m 0 min 0 min 5 W/m 6,3 km/h (2 Bft) 93,62 %
26.11.2016 06:38 3,3 C 3,3 C 2,2 C 88 % 0 lf 1019,5 hPa 0,0 l/m 0 min 0 min 5 W/m 6,3 km/h (2 Bft) 95,74 %
26.11.2016 06:40 3,3 C 3,3 C 2,2 C 88 % 0 lf 1019,4 hPa 0,0 l/m 0 min 0 min 5 W/m 4,2 km/h (1 Bft) 95,65 %
26.11.2016 06:42 3,3 C 3,3 C 2,2 C 88 % 0 lf 1019,4 hPa 0,0 l/m 0 min 0 min 5 W/m 6,3 km/h (2 Bft) 93,62 %
26.11.2016 06:44 3,3 C 3,3 C 2,2 C 88 % 0 lf 1019,4 hPa 0,0 l/m 0 min 0 min 5 W/m 8,4 km/h (2 Bft) 91,49 %
26.11.2016 06:46 3,3 C 3,3 C 2,2 C 88 % 0 lf 1019,3 hPa 0,0 l/m 0 min 0 min 5 W/m 6,3 km/h (2 Bft) 89,36 %
26.11.2016 06:48 3,2 C 3,3 C 2,2 C 88 % 0 lf 1019,3 hPa 0,0 l/m 0 min 0 min 5 W/m 6,3 km/h (2 Bft) 91,49 %
26.11.2016 06:50 3,2 C 3,3 C 2,2 C 88 % 0 lf 1019,3 hPa 0,0 l/m 0 min 0 min 5 W/m 6,3 km/h (2 Bft) 95,65 %
26.11.2016 06:52 3,2 C 3,3 C 2,2 C 88 % 0 lf 1019,3 hPa 0,0 l/m 0 min 0 min 5 W/m 6,3 km/h (2 Bft) 97,87 %
26.11.2016 06:54 3,2 C 3,3 C 2,2 C 88 % 0 lf 1019,4 hPa 0,0 l/m 0 min 0 min 5 W/m 8,4 km/h (2 Bft) 91,49 %
26.11.2016 06:56 3,2 C 3,3 C 2,2 C 88 % 0 lf 1019,3 hPa 0,0 l/m 0 min 0 min 5 W/m 6,3 km/h (2 Bft) 89,36 %
26.11.2016 06:58 3,2 C 3,3 C 2,2 C 88 % 0 lf 1019,4 hPa 0,0 l/m 0 min 0 min 5 W/m 6,3 km/h (2 Bft) 91,49 %
26.11.2016 07:00 3,1 C 3,3 C 2,2 C 88 % 0 lf 1019,3 hPa 0,0 l/m 0 min 0 min 5 W/m 4,2 km/h (1 Bft) 95,74 %
26.11.2016 07:02 3,1 C 3,3 C 2,2 C 88 % 0 lf 1019,3 hPa 0,0 l/m 0 min 0 min 5 W/m 4,2 km/h (1 Bft) 95,65 %
26.11.2016 07:04 3,1 C 3,3 C 2,2 C 88 % 0 lf 1019,3 hPa 0,0 l/m 0 min 0 min 5 W/m 6,3 km/h (2 Bft) 93,62 %
26.11.2016 07:06 3,1 C 3,3 C 2,2 C 88 % 0 lf 1019,3 hPa 0,0 l/m 0 min 0 min 5 W/m 6,3 km/h (2 Bft) 91,49 %
26.11.2016 07:08 3,1 C 3,3 C 2,2 C 88 % 0 lf 1019,3 hPa 0,0 l/m 0 min 0 min 5 W/m 6,3 km/h (2 Bft) 95,74 %
26.11.2016 07:10 3,1 C 3,3 C 2,2 C 88 % 0 lf 1019,4 hPa 0,0 l/m 0 min 0 min 5 W/m 4,2 km/h (1 Bft) 95,74 %
26.11.2016 07:12 3,1 C 3,3 C 2,2 C 88 % 0 lf 1019,4 hPa 0,0 l/m 0 min 0 min 5 W/m 4,2 km/h (1 Bft) 91,49 %
26.11.2016 07:14 3,0 C 3,3 C 2,2 C 88 % 0 lf 1019,3 hPa 0,0 l/m 0 min 0 min 5 W/m 8,4 km/h (2 Bft) 93,48 %
26.11.2016 07:16 3,0 C 2,8 C 2,2 C 88 % 0 lf 1019,3 hPa 0,0 l/m 0 min 0 min 5 W/m 8,4 km/h (2 Bft) 97,87 %
26.11.2016 07:18 2,9 C 2,8 C 1,7 C 88 % 0 lf 1019,3 hPa 0,0 l/m 0 min 0 min 5 W/m 8,4 km/h (2 Bft) 93,62 %
26.11.2016 07:20 2,9 C 2,8 C 1,7 C 88 % 0 lf 1019,3 hPa 0,0 l/m 0 min 0 min 5 W/m 8,4 km/h (2 Bft) 95,74 %
26.11.2016 07:22 2,9 C 2,8 C 1,7 C 88 % 0 lf 1019,3 hPa 0,0 l/m 0 min 0 min 5 W/m 8,4 km/h (2 Bft) 97,87 %
26.11.2016 07:24 2,9 C 2,8 C 1,7 C 88 % 0 lf 1019,3 hPa 0,0 l/m 0 min 0 min 5 W/m 8,4 km/h (2 Bft) 100,00 %
26.11.2016 07:26 2,9 C 2,8 C 2,2 C 88 % 0 lf 1019,5 hPa 0,0 l/m 0 min 0 min 5 W/m 6,3 km/h (2 Bft) 97,83 %
26.11.2016 07:28 2,9 C 2,8 C 2,2 C 88 % 0 lf 1019,5 hPa 0,0 l/m 0 min 0 min 5 W/m 8,4 km/h (2 Bft) 97,87 %
26.11.2016 07:30 2,9 C 2,8 C 2,2 C 88 % 0 lf 1019,4 hPa 0,0 l/m 0 min 0 min 5 W/m 8,4 km/h (2 Bft) 97,87 %
26.11.2016 07:32 2,8 C 2,8 C 2,2 C 88 % 0 lf 1019,4 hPa 0,0 l/m 0 min 0 min 5 W/m 6,3 km/h (2 Bft) 100,00 %
26.11.2016 07:34 2,8 C 2,8 C 2,2 C 88 % 0 lf 1019,4 hPa 0,0 l/m 0 min 0 min 5 W/m 8,4 km/h (2 Bft) 97,87 %
26.11.2016 07:36 2,8 C 2,8 C 2,2 C 88 % 0 lf 1019,3 hPa 0,0 l/m 0 min 0 min 5 W/m 6,3 km/h (2 Bft) 98,18 %
26.11.2016 07:38 2,8 C 2,8 C 2,2 C 88 % 0 lf 1019,4 hPa 0,0 l/m 0 min 0 min 5 W/m 6,3 km/h (2 Bft) 97,87 %
26.11.2016 07:40 2,8 C 2,8 C 1,7 C 88 % 0 lf 1019,4 hPa 0,0 l/m 0 min 0 min 5 W/m 6,3 km/h (2 Bft) 100,00 %
26.11.2016 07:42 2,8 C 2,8 C 1,7 C 88 % 0 lf 1019,3 hPa 0,0 l/m 0 min 0 min 5 W/m 6,3 km/h (2 Bft) 100,00 %
26.11.2016 07:44 2,8 C 2,8 C 1,7 C 88 % 0 lf 1019,3 hPa 0,0 l/m 0 min 0 min 5 W/m 6,3 km/h (2 Bft) 100,00 %
26.11.2016 07:46 2,8 C 2,8 C 1,7 C 88 % 0 lf 1019,3 hPa 0,0 l/m 0 min 0 min 5 W/m 6,3 km/h (2 Bft) 97,87 %
26.11.2016 07:48 2,8 C 2,8 C 1,7 C 88 % 0 lf 1019,3 hPa 0,0 l/m 0 min 0 min 5 W/m 6,3 km/h (2 Bft) 97,87 %
26.11.2016 07:50 2,8 C 2,8 C 1,7 C 88 % 0 lf 1019,3 hPa 0,0 l/m 0 min 0 min 5 W/m 10,5 km/h (2 Bft) 97,87 %
26.11.2016 07:52 2,8 C 2,8 C 1,7 C 88 % 0 lf 1019,4 hPa 0,0 l/m 0 min 0 min 5 W/m 10,5 km/h (2 Bft) 93,48 %
26.11.2016 07:54 2,8 C 2,8 C 1,7 C 88 % 0 lf 1019,4 hPa 0,0 l/m 0 min 0 min 5 W/m 6,3 km/h (2 Bft) 97,87 %
26.11.2016 07:56 2,8 C 2,8 C 1,7 C 89 % 0 lf 1019,4 hPa 0,0 l/m 0 min 0 min 5 W/m 6,3 km/h (2 Bft) 100,00 %
26.11.2016 07:58 2,7 C 2,8 C 1,7 C 89 % 0 lf 1019,4 hPa 0,0 l/m 0 min 0 min 5 W/m 8,4 km/h (2 Bft) 97,87 %
26.11.2016 08:00 2,7 C 2,8 C 1,7 C 89 % 0 lf 1019,4 hPa 0,0 l/m 0 min 0 min 5 W/m 6,3 km/h (2 Bft) 95,74 %
26.11.2016 08:02 2,7 C 2,8 C 1,7 C 89 % 0 lf 1019,4 hPa 0,0 l/m 0 min 0 min 5 W/m 6,3 km/h (2 Bft) 93,62 %
26.11.2016 08:04 2,7 C 2,8 C 1,7 C 89 % 0 lf 1019,3 hPa 0,0 l/m 0 min 0 min 6 W/m 8,4 km/h (2 Bft) 97,83 %
26.11.2016 08:06 2,7 C 2,8 C 1,7 C 89 % 0 lf 1019,5 hPa 0,0 l/m 0 min 0 min 7 W/m 6,3 km/h (2 Bft) 97,87 %
26.11.2016 08:08 2,7 C 2,8 C 1,7 C 89 % 0 lf 1019,4 hPa 0,0 l/m 0 min 0 min 7 W/m 10,5 km/h (2 Bft) 100,00 %
26.11.2016 08:10 2,7 C 2,8 C 1,7 C 89 % 0 lf 1019,4 hPa 0,0 l/m 0 min 0 min 7 W/m 6,3 km/h (2 Bft) 95,74 %
26.11.2016 08:12 2,6 C 2,8 C 1,7 C 89 % 0 lf 1019,4 hPa 0,0 l/m 0 min 0 min 7 W/m 8,4 km/h (2 Bft) 100,00 %
26.11.2016 08:14 2,6 C 2,8 C 1,7 C 89 % 0 lf 1019,3 hPa 0,0 l/m 0 min 0 min 7 W/m 8,4 km/h (2 Bft) 100,00 %
26.11.2016 08:16 2,6 C 2,8 C 1,7 C 89 % 0 lf 1019,4 hPa 0,0 l/m 0 min 0 min 7 W/m 6,3 km/h (2 Bft) 100,00 %
26.11.2016 08:18 2,6 C 2,8 C 1,7 C 89 % 0 lf 1019,3 hPa 0,0 l/m 0 min 0 min 9 W/m 10,5 km/h (2 Bft) 97,87 %
26.11.2016 08:20 2,6 C 2,8 C 1,7 C 89 % 0 lf 1019,4 hPa 0,0 l/m 0 min 0 min 9 W/m 10,5 km/h (2 Bft) 95,74 %
26.11.2016 08:22 2,6 C 2,8 C 1,7 C 89 % 0 lf 1019,4 hPa 0,0 l/m 0 min 0 min 9 W/m 6,3 km/h (2 Bft) 100,00 %
26.11.2016 08:24 2,6 C 2,8 C 1,7 C 89 % 0 lf 1019,5 hPa 0,0 l/m 0 min 0 min 11 W/m 6,3 km/h (2 Bft) 95,74 %
26.11.2016 08:26 2,5 C 2,8 C 1,7 C 89 % 0 lf 1019,5 hPa 0,0 l/m 0 min 0 min 11 W/m 8,4 km/h (2 Bft) 97,87 %
26.11.2016 08:28 2,5 C 2,8 C 1,7 C 89 % 0 lf 1019,4 hPa 0,0 l/m 0 min 0 min 11 W/m 8,4 km/h (2 Bft) 95,65 %
26.11.2016 08:30 2,5 C 2,8 C 1,7 C 89 % 0 lf 1019,4 hPa 0,0 l/m 0 min 0 min 12 W/m 8,4 km/h (2 Bft) 97,87 %
26.11.2016 08:32 2,4 C 2,8 C 1,7 C 89 % 0 lf 1019,4 hPa 0,0 l/m 0 min 0 min 12 W/m 6,3 km/h (2 Bft) 97,87 %
26.11.2016 08:34 2,4 C 2,8 C 1,7 C 89 % 0 lf 1019,5 hPa 0,0 l/m 0 min 0 min 12 W/m 6,3 km/h (2 Bft) 97,87 %
26.11.2016 08:36 2,4 C 2,8 C 1,7 C 89 % 0 lf 1019,5 hPa 0,0 l/m 0 min 0 min 14 W/m 6,3 km/h (2 Bft) 89,36 %
26.11.2016 08:38 2,4 C 2,8 C 1,7 C 89 % 0 lf 1019,6 hPa 0,0 l/m 0 min 0 min 14 W/m 6,3 km/h (2 Bft) 95,65 %
26.11.2016 08:40 2,4 C 2,8 C 1,7 C 89 % 0 lf 1019,5 hPa 0,0 l/m 0 min 0 min 14 W/m 4,2 km/h (1 Bft) 95,74 %
26.11.2016 08:42 2,4 C 2,8 C 1,7 C 89 % 0 lf 1019,5 hPa 0,0 l/m 0 min 0 min 14 W/m 6,3 km/h (2 Bft) 97,87 %
26.11.2016 08:44 2,4 C 2,8 C 1,7 C 89 % 0 lf 1019,5 hPa 0,0 l/m 0 min 0 min 15 W/m 4,2 km/h (1 Bft) 93,62 %
26.11.2016 08:46 2,4 C 2,8 C 1,7 C 89 % 0 lf 1019,5 hPa 0,0 l/m 0 min 0 min 16 W/m 4,2 km/h (1 Bft) 95,74 %
26.11.2016 08:48 2,4 C 2,8 C 1,7 C 89 % 0 lf 1019,5 hPa 0,0 l/m 0 min 0 min 16 W/m 6,3 km/h (2 Bft) 93,62 %
26.11.2016 08:50 2,4 C 2,8 C 1,7 C 89 % 0 lf 1019,7 hPa 0,0 l/m 0 min 0 min 16 W/m 6,3 km/h (2 Bft) 95,65 %
26.11.2016 08:52 2,4 C 2,8 C 1,7 C 89 % 0 lf 1019,6 hPa 0,0 l/m 0 min 0 min 16 W/m 6,3 km/h (2 Bft) 95,74 %
26.11.2016 08:54 2,4 C 2,8 C 1,7 C 89 % 0 lf 1019,6 hPa 0,0 l/m 0 min 0 min 18 W/m 8,4 km/h (2 Bft) 97,87 %
26.11.2016 08:56 2,4 C 2,8 C 1,7 C 89 % 0 lf 1019,6 hPa 0,0 l/m 0 min 0 min 17 W/m 8,4 km/h (2 Bft) 95,74 %
26.11.2016 08:58 2,4 C 2,8 C 1,7 C 89 % 0 lf 1019,7 hPa 0,0 l/m 0 min 0 min 16 W/m 6,3 km/h (2 Bft) 91,49 %
26.11.2016 09:00 2,4 C 2,8 C 1,7 C 89 % 0 lf 1019,7 hPa 0,0 l/m 0 min 0 min 17 W/m 8,4 km/h (2 Bft) 91,49 %
26.11.2016 09:02 2,4 C 2,8 C 1,7 C 89 % 0 lf 1019,6 hPa 0,0 l/m 0 min 0 min 18 W/m 6,3 km/h (2 Bft) 91,49 %
26.11.2016 09:04 2,4 C 2,8 C 1,7 C 89 % 0 lf 1019,6 hPa 0,0 l/m 0 min 0 min 19 W/m 8,4 km/h (2 Bft) 89,13 %
26.11.2016 09:06 2,3 C 2,8 C 1,7 C 89 % 0 lf 1019,6 hPa 0,0 l/m 0 min 0 min 21 W/m 8,4 km/h (2 Bft) 93,62 %
26.11.2016 09:08 2,3 C 2,8 C 1,7 C 89 % 0 lf 1019,6 hPa 0,0 l/m 0 min 0 min 23 W/m 4,2 km/h (1 Bft) 91,49 %
26.11.2016 09:10 2,3 C 2,8 C 1,7 C 89 % 0 lf 1019,6 hPa 0,0 l/m 0 min 0 min 25 W/m 4,2 km/h (1 Bft) 89,36 %
26.11.2016 09:12 2,3 C 2,8 C 1,7 C 89 % 0 lf 1019,5 hPa 0,0 l/m 0 min 0 min 27 W/m 6,3 km/h (2 Bft) 91,49 %
26.11.2016 09:14 2,3 C 2,8 C 1,7 C 89 % 0 lf 1019,6 hPa 0,0 l/m 0 min 0 min 29 W/m 6,3 km/h (2 Bft) 97,83 %
26.11.2016 09:16 2,3 C 2,8 C 1,7 C 89 % 0 lf 1019,5 hPa 0,0 l/m 0 min 0 min 31 W/m 6,3 km/h (2 Bft) 97,87 %
26.11.2016 09:18 2,3 C 2,8 C 1,7 C 89 % 0 lf 1019,5 hPa 0,0 l/m 0 min 0 min 32 W/m 8,4 km/h (2 Bft) 97,87 %
26.11.2016 09:20 2,3 C 2,8 C 1,7 C 89 % 0 lf 1019,5 hPa 0,0 l/m 0 min 0 min 33 W/m 8,4 km/h (2 Bft) 95,74 %
26.11.2016 09:22 2,3 C 2,8 C 1,7 C 89 % 0 lf 1019,5 hPa 0,0 l/m 0 min 0 min 33 W/m 6,3 km/h (2 Bft) 97,87 %
26.11.2016 09:24 2,3 C 2,8 C 1,7 C 89 % 0 lf 1019,6 hPa 0,0 l/m 0 min 0 min 35 W/m 6,3 km/h (2 Bft) 95,74 %
26.11.2016 09:26 2,3 C 2,8 C 1,7 C 89 % 0 lf 1019,6 hPa 0,0 l/m 0 min 0 min 35 W/m 4,2 km/h (1 Bft) 97,83 %
26.11.2016 09:28 2,3 C 2,8 C 1,7 C 89 % 0 lf 1019,5 hPa 0,0 l/m 0 min 0 min 35 W/m 4,2 km/h (1 Bft) 97,87 %
26.11.2016 09:30 2,3 C 2,8 C 1,7 C 89 % 0 lf 1019,6 hPa 0,0 l/m 0 min 0 min 35 W/m 6,3 km/h (2 Bft) 95,74 %
26.11.2016 09:32 2,3 C 2,8 C 2,2 C 89 % 0 lf 1019,6 hPa 0,0 l/m 0 min 0 min 35 W/m 4,2 km/h (1 Bft) 97,87 %
26.11.2016 09:34 2,3 C 2,8 C 2,2 C 89 % 0 lf 1019,6 hPa 0,0 l/m 0 min 0 min 38 W/m 6,3 km/h (2 Bft) 93,62 %
26.11.2016 09:36 2,3 C 2,8 C 2,2 C 89 % 0 lf 1019,6 hPa 0,0 l/m 0 min 0 min 40 W/m 8,4 km/h (2 Bft) 95,74 %
26.11.2016 09:38 2,3 C 3,3 C 2,2 C 89 % 0 lf 1019,6 hPa 0,0 l/m 0 min 0 min 42 W/m 8,4 km/h (2 Bft) 95,65 %
26.11.2016 09:40 2,3 C 3,3 C 2,2 C 89 % 0 lf 1019,5 hPa 0,0 l/m 0 min 0 min 43 W/m 6,3 km/h (2 Bft) 97,87 %
26.11.2016 09:42 2,3 C 3,3 C 2,2 C 90 % 0 lf 1019,6 hPa 0,0 l/m 0 min 0 min 46 W/m 8,4 km/h (2 Bft) 95,74 %
26.11.2016 09:44 2,3 C 3,3 C 2,2 C 90 % 0 lf 1019,5 hPa 0,0 l/m 0 min 0 min 47 W/m 6,3 km/h (2 Bft) 97,87 %
26.11.2016 09:46 2,3 C 3,3 C 2,2 C 90 % 0 lf 1019,5 hPa 0,0 l/m 0 min 0 min 50 W/m 8,4 km/h (2 Bft) 95,74 %
26.11.2016 09:48 2,3 C 3,3 C 2,2 C 90 % 0 lf 1019,6 hPa 0,0 l/m 0 min 0 min 51 W/m 8,4 km/h (2 Bft) 97,83 %
26.11.2016 09:50 2,4 C 3,3 C 2,2 C 90 % 0 lf 1019,5 hPa 0,0 l/m 0 min 0 min 53 W/m 8,4 km/h (2 Bft) 100,00 %
26.11.2016 09:52 2,4 C 3,3 C 2,2 C 90 % 0 lf 1019,4 hPa 0,0 l/m 0 min 0 min 55 W/m 6,3 km/h (2 Bft) 91,49 %
26.11.2016 09:54 2,4 C 3,3 C 2,2 C 90 % 0 lf 1019,4 hPa 0,0 l/m 0 min 0 min 57 W/m 8,4 km/h (2 Bft) 100,00 %
26.11.2016 09:56 2,4 C 3,3 C 2,2 C 90 % 0 lf 1019,5 hPa 0,0 l/m 0 min 0 min 60 W/m 6,3 km/h (2 Bft) 97,87 %
26.11.2016 09:58 2,4 C 3,3 C 2,2 C 90 % 0 lf 1019,5 hPa 0,0 l/m 0 min 0 min 59 W/m 10,5 km/h (2 Bft) 95,74 %
26.11.2016 10:00 2,4 C 3,3 C 2,2 C 90 % 0 lf 1019,5 hPa 0,0 l/m 0 min 0 min 56 W/m 10,5 km/h (2 Bft) 97,87 %
26.11.2016 10:02 2,4 C 3,3 C 2,2 C 90 % 0 lf 1019,5 hPa 0,0 l/m 0 min 0 min 56 W/m 8,4 km/h (2 Bft) 100,00 %
26.11.2016 10:04 2,4 C 3,3 C 2,2 C 90 % 0 lf 1019,5 hPa 0,0 l/m 0 min 0 min 55 W/m 8,4 km/h (2 Bft) 97,87 %
26.11.2016 10:06 2,4 C 3,3 C 2,2 C 90 % 0 lf 1019,6 hPa 0,0 l/m 0 min 0 min 55 W/m 8,4 km/h (2 Bft) 97,87 %
26.11.2016 10:08 2,4 C 3,3 C 2,2 C 90 % 0 lf 1019,6 hPa 0,0 l/m 0 min 0 min 55 W/m 8,4 km/h (2 Bft) 100,00 %
26.11.2016 10:10 2,4 C 3,3 C 2,2 C 90 % 0 lf 1019,5 hPa 0,0 l/m 0 min 0 min 54 W/m 6,3 km/h (2 Bft) 100,00 %
26.11.2016 10:12 2,4 C 3,3 C 2,2 C 90 % 0 lf 1019,5 hPa 0,0 l/m 0 min 0 min 54 W/m 4,2 km/h (1 Bft) 100,00 %
26.11.2016 10:14 2,4 C 3,3 C 2,2 C 90 % 0 lf 1019,5 hPa 0,0 l/m 0 min 0 min 54 W/m 6,3 km/h (2 Bft) 95,74 %
26.11.2016 10:16 2,5 C 3,3 C 2,8 C 90 % 0 lf 1019,5 hPa 0,0 l/m 0 min 0 min 56 W/m 6,3 km/h (2 Bft) 95,74 %
26.11.2016 10:18 2,5 C 3,9 C 2,8 C 90 % 0 lf 1019,5 hPa 0,0 l/m 0 min 0 min 58 W/m 2,1 km/h (1 Bft) 93,62 %
26.11.2016 10:20 2,5 C 3,9 C 2,8 C 90 % 0 lf 1019,6 hPa 0,0 l/m 0 min 0 min 58 W/m 6,3 km/h (2 Bft) 93,62 %
26.11.2016 10:22 2,5 C 3,9 C 2,8 C 90 % 0 lf 1019,5 hPa 0,0 l/m 0 min 0 min 58 W/m 6,3 km/h (2 Bft) 97,87 %
26.11.2016 10:24 2,6 C 3,9 C 2,8 C 90 % 0 lf 1019,5 hPa 0,0 l/m 0 min 0 min 58 W/m 8,4 km/h (2 Bft) 95,65 %
26.11.2016 10:26 2,6 C 3,9 C 2,8 C 90 % 0 lf 1019,4 hPa 0,0 l/m 0 min 0 min 59 W/m 8,4 km/h (2 Bft) 93,62 %
26.11.2016 10:28 2,6 C 3,9 C 2,8 C 90 % 0 lf 1019,5 hPa 0,0 l/m 0 min 0 min 62 W/m 8,4 km/h (2 Bft) 97,87 %
26.11.2016 10:30 2,6 C 3,9 C 2,8 C 90 % 0 lf 1019,5 hPa 0,0 l/m 0 min 0 min 64 W/m 6,3 km/h (2 Bft) 91,49 %
26.11.2016 10:32 2,6 C 3,9 C 2,8 C 90 % 0 lf 1019,5 hPa 0,0 l/m 0 min 0 min 66 W/m 4,2 km/h (1 Bft) 95,74 %
26.11.2016 10:34 2,6 C 3,9 C 2,8 C 90 % 0 lf 1019,5 hPa 0,0 l/m 0 min 0 min 68 W/m 6,3 km/h (2 Bft) 93,62 %
26.11.2016 10:36 2,7 C 3,9 C 2,8 C 90 % 0 lf 1019,5 hPa 0,0 l/m 0 min 0 min 71 W/m 4,2 km/h (1 Bft) 95,65 %
26.11.2016 10:38 2,7 C 3,9 C 2,8 C 90 % 0 lf 1019,5 hPa 0,0 l/m 0 min 0 min 72 W/m 6,3 km/h (2 Bft) 91,49 %
26.11.2016 10:40 2,7 C 3,9 C 2,8 C 90 % 0 lf 1019,5 hPa 0,0 l/m 0 min 0 min 72 W/m 4,2 km/h (1 Bft) 95,74 %
26.11.2016 10:42 2,7 C 3,9 C 3,3 C 90 % 0 lf 1019,6 hPa 0,0 l/m 0 min 0 min 72 W/m 4,2 km/h (1 Bft) 91,49 %
26.11.2016 10:44 2,7 C 3,9 C 3,3 C 90 % 0 lf 1019,6 hPa 0,0 l/m 0 min 0 min 72 W/m 4,2 km/h (1 Bft) 91,49 %
26.11.2016 10:46 2,7 C 3,9 C 3,3 C 90 % 0 lf 1019,6 hPa 0,0 l/m 0 min 0 min 76 W/m 4,2 km/h (1 Bft) 95,74 %
26.11.2016 10:48 2,8 C 3,9 C 3,3 C 90 % 0 lf 1019,5 hPa 0,0 l/m 0 min 0 min 76 W/m 8,4 km/h (2 Bft) 93,48 %
26.11.2016 10:50 2,8 C 3,9 C 3,3 C 90 % 0 lf 1019,5 hPa 0,0 l/m 0 min 0 min 77 W/m 10,5 km/h (2 Bft) 91,49 %
26.11.2016 10:52 2,8 C 3,9 C 3,3 C 90 % 0 lf 1019,6 hPa 0,0 l/m 0 min 0 min 79 W/m 4,2 km/h (1 Bft) 95,74 %
26.11.2016 10:54 2,8 C 3,9 C 3,3 C 90 % 0 lf 1019,5 hPa 0,0 l/m 0 min 0 min 81 W/m 2,1 km/h (1 Bft) 91,49 %
26.11.2016 10:56 2,8 C 3,9 C 3,3 C 90 % 0 lf 1019,5 hPa 0,0 l/m 0 min 0 min 83 W/m 6,3 km/h (2 Bft) 91,49 %
26.11.2016 10:58 2,9 C 4,4 C 3,3 C 90 % 0 lf 1019,5 hPa 0,0 l/m 0 min 0 min 85 W/m 4,2 km/h (1 Bft) 89,36 %
26.11.2016 11:00 2,9 C 4,4 C 3,3 C 90 % 0 lf 1019,4 hPa 0,0 l/m 0 min 0 min 88 W/m 6,3 km/h (2 Bft) 93,48 %
26.11.2016 11:02 2,9 C 4,4 C 3,3 C 90 % 0 lf 1019,4 hPa 0,0 l/m 0 min 0 min 91 W/m 6,3 km/h (2 Bft) 93,62 %
26.11.2016 11:04 2,9 C 4,4 C 3,3 C 90 % 0 lf 1019,5 hPa 0,0 l/m 0 min 0 min 91 W/m 6,3 km/h (2 Bft) 91,49 %
26.11.2016 11:06 2,9 C 4,4 C 3,3 C 90 % 0 lf 1019,4 hPa 0,0 l/m 0 min 0 min 95 W/m 6,3 km/h (2 Bft) 93,62 %
26.11.2016 11:08 3,0 C 5,0 C 3,3 C 90 % 0 lf 1019,4 hPa 0,0 l/m 0 min 0 min 95 W/m 4,2 km/h (1 Bft) 95,74 %
26.11.2016 11:10 3,0 C 5,0 C 3,9 C 90 % 0 lf 1019,4 hPa 0,0 l/m 0 min 0 min 97 W/m 4,2 km/h (1 Bft) 91,49 %
26.11.2016 11:12 3,1 C 5,0 C 3,9 C 90 % 0 lf 1019,4 hPa 0,0 l/m 0 min 0 min 98 W/m 4,2 km/h (1 Bft) 95,65 %
26.11.2016 11:14 3,1 C 5,0 C 3,9 C 90 % 0 lf 1019,3 hPa 0,0 l/m 0 min 0 min 98 W/m 6,3 km/h (2 Bft) 93,62 %
26.11.2016 11:16 3,1 C 5,0 C 4,4 C 90 % 0 lf 1019,4 hPa 0,0 l/m 0 min 0 min 98 W/m 4,2 km/h (1 Bft) 95,74 %
26.11.2016 11:18 3,2 C 5,0 C 3,9 C 90 % 0 lf 1019,2 hPa 0,0 l/m 0 min 0 min 102 W/m 8,4 km/h (2 Bft) 93,62 %
26.11.2016 11:20 3,2 C 5,0 C 3,9 C 90 % 0 lf 1019,2 hPa 0,0 l/m 0 min 0 min 106 W/m 8,4 km/h (2 Bft) 93,62 %
26.11.2016 11:22 3,2 C 5,0 C 3,9 C 90 % 0 lf 1019,2 hPa 0,0 l/m 0 min 0 min 106 W/m 6,3 km/h (2 Bft) 93,48 %
26.11.2016 11:24 3,3 C 5,0 C 3,9 C 90 % 0 lf 1019,2 hPa 0,0 l/m 0 min 0 min 103 W/m 8,4 km/h (2 Bft) 93,62 %
26.11.2016 11:26 3,3 C 5,0 C 3,9 C 90 % 0 lf 1019,2 hPa 0,0 l/m 0 min 0 min 101 W/m 6,3 km/h (2 Bft) 95,74 %
26.11.2016 11:28 3,3 C 5,0 C 4,4 C 90 % 0 lf 1019,2 hPa 0,0 l/m 0 min 0 min 103 W/m 4,2 km/h (1 Bft) 95,74 %
26.11.2016 11:30 3,4 C 5,0 C 3,9 C 90 % 0 lf 1019,2 hPa 0,0 l/m 0 min 0 min 107 W/m 6,3 km/h (2 Bft) 93,62 %
26.11.2016 11:32 3,4 C 5,0 C 4,4 C 90 % 0 lf 1019,2 hPa 0,0 l/m 0 min 0 min 109 W/m 2,1 km/h (1 Bft) 95,74 %
26.11.2016 11:34 3,4 C 5,6 C 4,4 C 90 % 0 lf 1019,1 hPa 0,0 l/m 0 min 0 min 109 W/m 2,1 km/h (1 Bft) 97,83 %
26.11.2016 11:36 3,4 C 5,6 C 4,4 C 90 % 0 lf 1019,0 hPa 0,0 l/m 0 min 0 min 110 W/m 6,3 km/h (2 Bft) 97,87 %
26.11.2016 11:38 3,5 C 5,6 C 4,4 C 90 % 0 lf 1019,0 hPa 0,0 l/m 0 min 0 min 112 W/m 4,2 km/h (1 Bft) 93,62 %
26.11.2016 11:40 3,6 C 5,6 C 4,4 C 90 % 0 lf 1019,0 hPa 0,0 l/m 0 min 0 min 107 W/m 4,2 km/h (1 Bft) 95,74 %
26.11.2016 11:42 3,6 C 5,6 C 4,4 C 90 % 0 lf 1018,9 hPa 0,0 l/m 0 min 0 min 98 W/m 6,3 km/h (2 Bft) 97,87 %
26.11.2016 11:44 3,7 C 5,6 C 4,4 C 90 % 0 lf 1019,0 hPa 0,0 l/m 0 min 0 min 96 W/m 4,2 km/h (1 Bft) 97,87 %
26.11.2016 11:46 3,7 C 5,6 C 4,4 C 90 % 0 lf 1018,9 hPa 0,0 l/m 0 min 0 min 98 W/m 8,4 km/h (2 Bft) 95,65 %
26.11.2016 11:48 3,8 C 5,6 C 5,0 C 90 % 0 lf 1018,9 hPa 0,0 l/m 0 min 0 min 114 W/m 4,2 km/h (1 Bft) 95,74 %
26.11.2016 11:50 3,8 C 5,6 C 5,0 C 90 % 0 lf 1018,8 hPa 0,0 l/m 0 min 0 min 121 W/m 6,3 km/h (2 Bft) 87,23 %
26.11.2016 11:52 3,8 C 5,6 C 4,4 C 90 % 0 lf 1018,8 hPa 0,0 l/m 0 min 0 min 123 W/m 10,5 km/h (2 Bft) 95,74 %
26.11.2016 11:54 3,9 C 5,6 C 5,0 C 90 % 0 lf 1018,8 hPa 0,0 l/m 0 min 0 min 123 W/m 4,2 km/h (1 Bft) 93,62 %
26.11.2016 11:56 3,9 C 6,1 C 5,0 C 90 % 0 lf 1018,9 hPa 0,0 l/m 0 min 0 min 122 W/m 4,2 km/h (1 Bft) 95,74 %
26.11.2016 11:58 3,9 C 6,1 C 5,0 C 90 % 0 lf 1018,8 hPa 0,0 l/m 0 min 0 min 116 W/m 6,3 km/h (2 Bft) 95,65 %
26.11.2016 12:00 4,0 C 6,1 C 5,0 C 90 % 0 lf 1018,8 hPa 0,0 l/m 0 min 0 min 109 W/m 8,4 km/h (2 Bft) 97,87 %
26.11.2016 12:02 4,0 C 6,1 C 4,4 C 90 % 0 lf 1018,7 hPa 0,0 l/m 0 min 0 min 103 W/m 8,4 km/h (2 Bft) 97,87 %
26.11.2016 12:06 4,1 C 5,6 C 5,0 C 90 % 0 lf 1018,7 hPa 0,0 l/m 0 min 0 min 105 W/m 10,5 km/h (2 Bft) 95,74 %
26.11.2016 12:08 4,1 C 6,1 C 5,0 C 90 % 0 lf 1018,8 hPa 0,0 l/m 0 min 0 min 114 W/m 2,1 km/h (1 Bft) 95,74 %
26.11.2016 12:10 4,2 C 6,1 C 5,0 C 90 % 0 lf 1018,8 hPa 0,0 l/m 0 min 0 min 125 W/m 6,3 km/h (2 Bft) 97,83 %
26.11.2016 12:12 4,2 C 6,7 C 5,0 C 90 % 0 lf 1018,7 hPa 0,0 l/m 0 min 0 min 124 W/m 8,4 km/h (2 Bft) 93,62 %
26.11.2016 12:14 4,2 C 6,7 C 5,0 C 90 % 0 lf 1018,6 hPa 0,0 l/m 0 min 0 min 113 W/m 8,4 km/h (2 Bft) 95,74 %
26.11.2016 12:16 4,3 C 6,7 C 5,0 C 90 % 0 lf 1018,7 hPa 0,0 l/m 0 min 0 min 110 W/m 6,3 km/h (2 Bft) 97,87 %
26.11.2016 12:18 4,3 C 6,7 C 5,0 C 90 % 0 lf 1018,6 hPa 0,0 l/m 0 min 0 min 110 W/m 6,3 km/h (2 Bft) 97,87 %
26.11.2016 12:20 4,4 C 6,7 C 5,0 C 90 % 0 lf 1018,5 hPa 0,0 l/m 0 min 0 min 109 W/m 6,3 km/h (2 Bft) 93,48 %
26.11.2016 12:22 4,4 C 6,7 C 5,0 C 90 % 0 lf 1018,5 hPa 0,0 l/m 0 min 0 min 115 W/m 8,4 km/h (2 Bft) 97,87 %
26.11.2016 12:24 4,4 C 6,7 C 5,0 C 90 % 0 lf 1018,5 hPa 0,0 l/m 0 min 0 min 126 W/m 6,3 km/h (2 Bft) 93,62 %
26.11.2016 12:26 4,5 C 6,7 C 5,6 C 90 % 0 lf 1018,5 hPa 0,0 l/m 0 min 0 min 126 W/m 6,3 km/h (2 Bft) 95,74 %
26.11.2016 12:28 4,6 C 6,7 C 5,6 C 90 % 0 lf 1018,5 hPa 0,0 l/m 0 min 0 min 126 W/m 8,4 km/h (2 Bft) 97,87 %
26.11.2016 12:30 4,6 C 6,7 C 5,6 C 90 % 0 lf 1018,5 hPa 0,0 l/m 0 min 0 min 130 W/m 6,3 km/h (2 Bft) 93,62 %
26.11.2016 12:32 4,7 C 6,7 C 5,6 C 90 % 0 lf 1018,5 hPa 0,0 l/m 0 min 0 min 137 W/m 8,4 km/h (2 Bft) 93,48 %
26.11.2016 12:34 4,7 C 7,2 C 5,6 C 90 % 0 lf 1018,4 hPa 0,0 l/m 0 min 0 min 144 W/m 8,4 km/h (2 Bft) 95,74 %
26.11.2016 12:36 4,7 C 7,2 C 5,6 C 89 % 0 lf 1018,4 hPa 0,0 l/m 0 min 0 min 150 W/m 6,3 km/h (2 Bft) 94,00 %
26.11.2016 12:38 4,8 C 7,2 C 5,6 C 90 % 0 lf 1018,5 hPa 0,0 l/m 2 min 0 min 156 W/m 6,3 km/h (2 Bft) 93,62 %
26.11.2016 12:40 4,8 C 7,8 C 6,1 C 90 % 0 lf 1018,5 hPa 0,0 l/m 2 min 0 min 163 W/m 8,4 km/h (2 Bft) 97,87 %
26.11.2016 12:42 4,9 C 7,8 C 6,1 C 90 % 0 lf 1018,5 hPa 0,0 l/m 2 min 0 min 166 W/m 6,3 km/h (2 Bft) 100,00 %
26.11.2016 12:44 4,9 C 7,8 C 6,1 C 89 % 0 lf 1018,5 hPa 0,0 l/m 2 min 0 min 166 W/m 6,3 km/h (2 Bft) 95,65 %
26.11.2016 12:46 4,9 C 7,8 C 6,1 C 89 % 0 lf 1018,5 hPa 0,0 l/m 2 min 0 min 162 W/m 6,3 km/h (2 Bft) 97,87 %
26.11.2016 12:48 5,0 C 7,8 C 6,1 C 89 % 0 lf 1018,4 hPa 0,0 l/m 2 min 0 min 163 W/m 8,4 km/h (2 Bft) 93,62 %
26.11.2016 12:50 5,1 C 7,8 C 6,1 C 89 % 0 lf 1018,4 hPa 0,0 l/m 2 min 0 min 166 W/m 8,4 km/h (2 Bft) 97,87 %
26.11.2016 12:52 5,1 C 8,3 C 6,1 C 89 % 0 lf 1018,4 hPa 0,0 l/m 2 min 0 min 174 W/m 4,2 km/h (1 Bft) 97,87 %
26.11.2016 12:54 5,2 C 8,3 C 6,7 C 89 % 0 lf 1018,4 hPa 0,0 l/m 2 min 0 min 179 W/m 6,3 km/h (2 Bft) 95,74 %
26.11.2016 12:56 5,2 C 8,3 C 6,1 C 89 % 0 lf 1018,4 hPa 0,0 l/m 2 min 0 min 178 W/m 8,4 km/h (2 Bft) 97,83 %
26.11.2016 12:58 5,3 C 8,3 C 6,1 C 89 % 0 lf 1018,4 hPa 0,0 l/m 2 min 0 min 178 W/m 8,4 km/h (2 Bft) 97,87 %
26.11.2016 13:00 5,3 C 8,3 C 6,7 C 89 % 0 lf 1018,4 hPa 0,0 l/m 2 min 0 min 174 W/m 8,4 km/h (2 Bft) 97,87 %
26.11.2016 13:02 5,4 C 8,3 C 6,7 C 89 % 0 lf 1018,4 hPa 0,0 l/m 2 min 0 min 166 W/m 6,3 km/h (2 Bft) 95,74 %
26.11.2016 13:04 5,4 C 8,9 C 6,7 C 89 % 0 lf 1018,4 hPa 0,0 l/m 2 min 0 min 163 W/m 6,3 km/h (2 Bft) 97,87 %
26.11.2016 13:06 5,5 C 8,9 C 6,7 C 89 % 0 lf 1018,4 hPa 0,0 l/m 2 min 0 min 167 W/m 6,3 km/h (2 Bft) 95,65 %
26.11.2016 13:08 5,6 C 9,4 C 6,7 C 89 % 0 lf 1018,4 hPa 0,0 l/m 2 min 0 min 182 W/m 6,3 km/h (2 Bft) 100,00 %
26.11.2016 13:10 5,6 C 9,4 C 6,7 C 89 % 0 lf 1018,4 hPa 0,0 l/m 2 min 0 min 193 W/m 6,3 km/h (2 Bft) 100,00 %
26.11.2016 13:12 5,7 C 9,4 C 6,7 C 89 % 0 lf 1018,4 hPa 0,0 l/m 2 min 0 min 191 W/m 8,4 km/h (2 Bft) 97,87 %
26.11.2016 13:14 5,7 C 9,4 C 6,7 C 89 % 0 lf 1018,3 hPa 0,0 l/m 2 min 0 min 191 W/m 6,3 km/h (2 Bft) 100,00 %
26.11.2016 13:16 5,8 C 9,4 C 7,2 C 89 % 0 lf 1018,4 hPa 0,0 l/m 2 min 0 min 192 W/m 6,3 km/h (2 Bft) 95,74 %
26.11.2016 13:18 5,8 C 10,0 C 7,2 C 89 % 0 lf 1018,4 hPa 0,0 l/m 2 min 0 min 194 W/m 6,3 km/h (2 Bft) 97,83 %
26.11.2016 13:20 5,9 C 10,0 C 7,2 C 89 % 0 lf 1018,4 hPa 0,0 l/m 2 min 0 min 208 W/m 8,4 km/h (2 Bft) 95,74 %
26.11.2016 13:22 5,9 C 10,0 C 7,2 C 89 % 0 lf 1018,4 hPa 0,0 l/m 2 min 0 min 207 W/m 8,4 km/h (2 Bft) 97,87 %
26.11.2016 13:24 6,0 C 10,0 C 7,2 C 89 % 0 lf 1018,3 hPa 0,0 l/m 2 min 0 min 207 W/m 8,4 km/h (2 Bft) 100,00 %
26.11.2016 13:26 6,0 C 10,0 C 7,2 C 89 % 0 lf 1018,4 hPa 0,0 l/m 2 min 0 min 200 W/m 8,4 km/h (2 Bft) 100,00 %
26.11.2016 13:28 6,1 C 10,0 C 7,2 C 89 % 0 lf 1018,3 hPa 0,0 l/m 2 min 0 min 194 W/m 6,3 km/h (2 Bft) 97,87 %
26.11.2016 13:30 6,2 C 10,0 C 7,2 C 88 % 0 lf 1018,3 hPa 0,0 l/m 2 min 0 min 197 W/m 8,4 km/h (2 Bft) 97,83 %
26.11.2016 13:32 6,2 C 10,0 C 7,2 C 88 % 0 lf 1018,2 hPa 0,0 l/m 2 min 0 min 198 W/m 6,3 km/h (2 Bft) 100,00 %
26.11.2016 13:34 6,2 C 10,0 C 7,2 C 88 % 0 lf 1018,2 hPa 0,0 l/m 2 min 0 min 188 W/m 6,3 km/h (2 Bft) 100,00 %
26.11.2016 13:36 6,3 C 10,0 C 7,2 C 88 % 0 lf 1018,3 hPa 0,0 l/m 2 min 0 min 182 W/m 4,2 km/h (1 Bft) 95,74 %
26.11.2016 13:38 6,3 C 10,0 C 7,2 C 88 % 0 lf 1018,3 hPa 0,0 l/m 2 min 0 min 177 W/m 6,3 km/h (2 Bft) 100,00 %
26.11.2016 13:40 6,4 C 9,4 C 7,2 C 88 % 0 lf 1018,3 hPa 0,0 l/m 2 min 0 min 177 W/m 8,4 km/h (2 Bft) 95,74 %
26.11.2016 13:42 6,4 C 9,4 C 7,2 C 88 % 0 lf 1018,2 hPa 0,0 l/m 2 min 0 min 186 W/m 6,3 km/h (2 Bft) 100,00 %
26.11.2016 13:44 6,4 C 10,0 C 7,2 C 87 % 0 lf 1018,2 hPa 0,0 l/m 2 min 0 min 194 W/m 6,3 km/h (2 Bft) 100,00 %
26.11.2016 13:46 6,4 C 10,0 C 7,8 C 87 % 0 lf 1018,2 hPa 0,0 l/m 2 min 0 min 199 W/m 6,3 km/h (2 Bft) 97,87 %
26.11.2016 13:48 6,5 C 9,4 C 7,8 C 87 % 0 lf 1018,2 hPa 0,0 l/m 2 min 0 min 197 W/m 8,4 km/h (2 Bft) 100,00 %
26.11.2016 13:50 6,5 C 9,4 C 7,2 C 87 % 0 lf 1018,2 hPa 0,0 l/m 2 min 0 min 192 W/m 8,4 km/h (2 Bft) 93,62 %
26.11.2016 13:52 6,6 C 10,0 C 7,8 C 87 % 0 lf 1018,2 hPa 0,0 l/m 2 min 0 min 185 W/m 8,4 km/h (2 Bft) 93,62 %
26.11.2016 13:54 6,6 C 9,4 C 7,8 C 87 % 0 lf 1018,2 hPa 0,0 l/m 2 min 0 min 165 W/m 8,4 km/h (2 Bft) 97,87 %
26.11.2016 13:56 6,6 C 9,4 C 7,8 C 87 % 0 lf 1018,2 hPa 0,0 l/m 2 min 0 min 139 W/m 8,4 km/h (2 Bft) 97,87 %
26.11.2016 13:58 6,7 C 9,4 C 7,2 C 87 % 0 lf 1018,0 hPa 0,0 l/m 0 min 0 min 120 W/m 8,4 km/h (2 Bft) 95,74 %
26.11.2016 14:00 6,7 C 8,9 C 7,2 C 86 % 0 lf 1018,2 hPa 0,0 l/m 0 min 0 min 109 W/m 8,4 km/h (2 Bft) 95,65 %
26.11.2016 14:02 6,7 C 8,9 C 7,2 C 87 % 0 lf 1018,1 hPa 0,0 l/m 0 min 0 min 112 W/m 8,4 km/h (2 Bft) 97,87 %
26.11.2016 14:04 6,7 C 8,9 C 7,2 C 86 % 0 lf 1018,0 hPa 0,0 l/m 0 min 0 min 120 W/m 8,4 km/h (2 Bft) 97,87 %
26.11.2016 14:06 6,8 C 8,9 C 7,2 C 86 % 0 lf 1018,0 hPa 0,0 l/m 2 min 0 min 125 W/m 8,4 km/h (2 Bft) 95,74 %
26.11.2016 14:08 6,8 C 8,9 C 7,2 C 86 % 0 lf 1017,9 hPa 0,0 l/m 2 min 0 min 125 W/m 6,3 km/h (2 Bft) 93,62 %
26.11.2016 14:10 6,8 C 8,9 C 7,2 C 86 % 0 lf 1017,9 hPa 0,0 l/m 2 min 0 min 123 W/m 10,5 km/h (2 Bft) 95,74 %
26.11.2016 14:12 6,9 C 8,9 C 7,2 C 86 % 0 lf 1017,9 hPa 0,0 l/m 0 min 0 min 117 W/m 8,4 km/h (2 Bft) 95,65 %
26.11.2016 14:14 6,9 C 8,9 C 7,2 C 86 % 0 lf 1018,0 hPa 0,0 l/m 0 min 0 min 110 W/m 8,4 km/h (2 Bft) 95,74 %
26.11.2016 14:16 6,9 C 8,9 C 7,2 C 86 % 0 lf 1018,0 hPa 0,0 l/m 0 min 0 min 109 W/m 6,3 km/h (2 Bft) 93,62 %
26.11.2016 14:18 7,0 C 8,9 C 7,2 C 86 % 0 lf 1017,9 hPa 0,0 l/m 0 min 0 min 109 W/m 8,4 km/h (2 Bft) 93,62 %
26.11.2016 14:20 7,0 C 8,9 C 7,8 C 86 % 0 lf 1017,9 hPa 0,0 l/m 0 min 0 min 112 W/m 6,3 km/h (2 Bft) 97,87 %
26.11.2016 14:22 7,0 C 9,4 C 7,8 C 86 % 0 lf 1017,9 hPa 0,0 l/m 0 min 0 min 113 W/m 6,3 km/h (2 Bft) 95,74 %
26.11.2016 14:24 7,1 C 9,4 C 7,8 C 86 % 0 lf 1017,8 hPa 0,0 l/m 2 min 0 min 114 W/m 6,3 km/h (2 Bft) 91,30 %
26.11.2016 14:26 7,1 C 9,4 C 7,8 C 86 % 0 lf 1017,8 hPa 0,0 l/m 2 min 0 min 119 W/m 4,2 km/h (1 Bft) 93,62 %
26.11.2016 14:28 7,2 C 9,4 C 7,8 C 86 % 0 lf 1017,9 hPa 0,0 l/m 2 min 0 min 123 W/m 6,3 km/h (2 Bft) 91,49 %
26.11.2016 14:30 7,2 C 9,4 C 7,8 C 86 % 0 lf 1017,8 hPa 0,0 l/m 2 min 0 min 127 W/m 6,3 km/h (2 Bft) 91,49 %
26.11.2016 14:32 7,2 C 9,4 C 7,8 C 86 % 0 lf 1017,7 hPa 0,0 l/m 2 min 0 min 128 W/m 8,4 km/h (2 Bft) 95,74 %
26.11.2016 14:34 7,3 C 9,4 C 7,2 C 86 % 0 lf 1017,7 hPa 0,0 l/m 2 min 0 min 129 W/m 8,4 km/h (2 Bft) 93,48 %
26.11.2016 14:36 7,3 C 9,4 C 7,2 C 86 % 0 lf 1017,7 hPa 0,0 l/m 2 min 0 min 130 W/m 6,3 km/h (2 Bft) 93,62 %
26.11.2016 14:38 7,4 C 9,4 C 7,2 C 86 % 0 lf 1017,7 hPa 0,0 l/m 2 min 0 min 128 W/m 6,3 km/h (2 Bft) 89,36 %
26.11.2016 14:40 7,4 C 9,4 C 7,2 C 86 % 0 lf 1017,8 hPa 0,0 l/m 2 min 0 min 129 W/m 8,4 km/h (2 Bft) 87,23 %
26.11.2016 14:42 7,4 C 9,4 C 7,2 C 85 % 0 lf 1017,8 hPa 0,0 l/m 2 min 0 min 130 W/m 8,4 km/h (2 Bft) 91,49 %
26.11.2016 14:44 7,4 C 9,4 C 7,2 C 85 % 0 lf 1017,8 hPa 0,0 l/m 2 min 0 min 124 W/m 6,3 km/h (2 Bft) 91,49 %
26.11.2016 14:46 7,4 C 9,4 C 7,2 C 85 % 0 lf 1017,7 hPa 0,0 l/m 2 min 0 min 117 W/m 6,3 km/h (2 Bft) 89,36 %
26.11.2016 14:48 7,4 C 9,4 C 7,2 C 85 % 0 lf 1017,7 hPa 0,0 l/m 2 min 0 min 112 W/m 6,3 km/h (2 Bft) 89,13 %
26.11.2016 14:50 7,5 C 9,4 C 7,2 C 85 % 0 lf 1017,8 hPa 0,0 l/m 2 min 0 min 106 W/m 6,3 km/h (2 Bft) 91,49 %
26.11.2016 14:52 7,5 C 9,4 C 7,2 C 85 % 0 lf 1017,7 hPa 0,0 l/m 2 min 0 min 103 W/m 6,3 km/h (2 Bft) 93,62 %
26.11.2016 14:54 7,6 C 8,9 C 7,2 C 85 % 0 lf 1017,8 hPa 0,0 l/m 2 min 0 min 100 W/m 12,6 km/h (3 Bft) 91,49 %
26.11.2016 14:56 7,6 C 8,9 C 7,2 C 85 % 0 lf 1017,7 hPa 0,0 l/m 2 min 0 min 100 W/m 8,4 km/h (2 Bft) 93,62 %
26.11.2016 14:58 7,6 C 8,9 C 7,2 C 85 % 0 lf 1017,7 hPa 0,0 l/m 2 min 0 min 98 W/m 6,3 km/h (2 Bft) 93,48 %
26.11.2016 15:00 7,6 C 8,9 C 7,2 C 85 % 0 lf 1017,7 hPa 0,0 l/m 2 min 0 min 98 W/m 10,5 km/h (2 Bft) 95,74 %
26.11.2016 15:02 7,6 C 8,9 C 7,2 C 85 % 0 lf 1017,7 hPa 0,0 l/m 2 min 0 min 96 W/m 10,5 km/h (2 Bft) 93,62 %
26.11.2016 15:04 7,6 C 8,9 C 7,2 C 85 % 0 lf 1017,6 hPa 0,0 l/m 2 min 0 min 93 W/m 8,4 km/h (2 Bft) 91,49 %
26.11.2016 15:06 7,7 C 8,9 C 7,2 C 85 % 0 lf 1017,6 hPa 0,0 l/m 2 min 0 min 91 W/m 10,5 km/h (2 Bft) 91,49 %
26.11.2016 15:08 7,7 C 8,9 C 7,2 C 85 % 0 lf 1017,6 hPa 0,0 l/m 2 min 0 min 91 W/m 8,4 km/h (2 Bft) 93,62 %
26.11.2016 15:10 7,7 C 8,9 C 7,2 C 85 % 0 lf 1017,6 hPa 0,0 l/m 2 min 0 min 91 W/m 4,2 km/h (1 Bft) 91,30 %
26.11.2016 15:12 7,7 C 8,9 C 6,7 C 85 % 0 lf 1017,7 hPa 0,0 l/m 2 min 0 min 91 W/m 4,2 km/h (1 Bft) 97,87 %
26.11.2016 15:14 7,7 C 8,9 C 6,7 C 85 % 0 lf 1017,6 hPa 0,0 l/m 2 min 0 min 91 W/m 8,4 km/h (2 Bft) 91,49 %
26.11.2016 15:16 7,7 C 8,9 C 6,7 C 85 % 0 lf 1017,7 hPa 0,0 l/m 2 min 0 min 91 W/m 6,3 km/h (2 Bft) 93,62 %
26.11.2016 15:18 7,7 C 8,9 C 6,7 C 85 % 0 lf 1017,7 hPa 0,0 l/m 2 min 0 min 91 W/m 6,3 km/h (2 Bft) 93,62 %
26.11.2016 15:20 7,7 C 8,9 C 6,7 C 85 % 0 lf 1017,6 hPa 0,0 l/m 2 min 0 min 90 W/m 6,3 km/h (2 Bft) 95,74 %
26.11.2016 15:22 7,7 C 8,9 C 6,7 C 85 % 0 lf 1017,7 hPa 0,0 l/m 2 min 0 min 87 W/m 6,3 km/h (2 Bft) 97,83 %
26.11.2016 15:24 7,7 C 8,9 C 6,7 C 85 % 0 lf 1017,6 hPa 0,0 l/m 2 min 0 min 84 W/m 6,3 km/h (2 Bft) 100,00 %
26.11.2016 15:26 7,7 C 8,9 C 6,7 C 85 % 0 lf 1017,7 hPa 0,0 l/m 2 min 0 min 82 W/m 6,3 km/h (2 Bft) 97,87 %
26.11.2016 15:28 7,7 C 8,3 C 6,7 C 85 % 0 lf 1017,7 hPa 0,0 l/m 2 min 0 min 78 W/m 8,4 km/h (2 Bft) 97,87 %
26.11.2016 15:30 7,7 C 8,3 C 6,7 C 85 % 0 lf 1017,7 hPa 0,0 l/m 2 min 0 min 75 W/m 8,4 km/h (2 Bft) 97,87 %
26.11.2016 15:32 7,7 C 8,3 C 6,1 C 85 % 0 lf 1017,7 hPa 0,0 l/m 2 min 0 min 72 W/m 10,5 km/h (2 Bft) 100,00 %
26.11.2016 15:34 7,6 C 8,3 C 6,1 C 85 % 0 lf 1017,7 hPa 0,0 l/m 2 min 0 min 72 W/m 12,6 km/h (3 Bft) 97,83 %
26.11.2016 15:36 7,6 C 8,3 C 6,1 C 85 % 0 lf 1017,7 hPa 0,0 l/m 2 min 0 min 70 W/m 10,5 km/h (2 Bft) 97,87 %
26.11.2016 15:38 7,6 C 7,8 C 6,1 C 85 % 0 lf 1017,7 hPa 0,0 l/m 2 min 0 min 71 W/m 8,4 km/h (2 Bft) 95,74 %
26.11.2016 15:40 7,6 C 7,8 C 6,1 C 85 % 0 lf 1017,7 hPa 0,0 l/m 2 min 0 min 72 W/m 6,3 km/h (2 Bft) 97,87 %
26.11.2016 15:42 7,6 C 7,8 C 6,1 C 85 % 0 lf 1017,8 hPa 0,0 l/m 2 min 0 min 70 W/m 10,5 km/h (2 Bft) 97,87 %
26.11.2016 15:44 7,5 C 7,8 C 6,1 C 84 % 0 lf 1017,7 hPa 0,0 l/m 2 min 0 min 68 W/m 8,4 km/h (2 Bft) 97,83 %
26.11.2016 15:46 7,4 C 7,8 C 5,6 C 84 % 0 lf 1017,8 hPa 0,0 l/m 2 min 0 min 66 W/m 10,5 km/h (2 Bft) 97,87 %
26.11.2016 15:48 7,4 C 7,2 C 5,6 C 84 % 0 lf 1017,8 hPa 0,0 l/m 2 min 0 min 62 W/m 10,5 km/h (2 Bft) 100,00 %
26.11.2016 15:50 7,3 C 7,2 C 5,6 C 84 % 0 lf 1017,7 hPa 0,0 l/m 2 min 0 min 58 W/m 12,6 km/h (3 Bft) 100,00 %
26.11.2016 15:52 7,3 C 7,2 C 5,6 C 84 % 0 lf 1017,8 hPa 0,0 l/m 2 min 0 min 55 W/m 10,5 km/h (2 Bft) 100,00 %
26.11.2016 15:54 7,3 C 7,2 C 5,6 C 84 % 0 lf 1017,8 hPa 0,0 l/m 2 min 0 min 53 W/m 8,4 km/h (2 Bft) 100,00 %
26.11.2016 15:56 7,2 C 7,2 C 5,6 C 84 % 0 lf 1017,8 hPa 0,0 l/m 2 min 0 min 49 W/m 8,4 km/h (2 Bft) 97,83 %
26.11.2016 15:58 7,2 C 7,2 C 5,6 C 84 % 0 lf 1017,7 hPa 0,0 l/m 2 min 0 min 46 W/m 10,5 km/h (2 Bft) 100,00 %
26.11.2016 16:00 7,1 C 6,7 C 5,0 C 84 % 0 lf 1017,8 hPa 0,0 l/m 2 min 0 min 44 W/m 12,6 km/h (3 Bft) 100,00 %
26.11.2016 16:02 7,1 C 6,7 C 5,0 C 84 % 0 lf 1017,8 hPa 0,0 l/m 2 min 0 min 41 W/m 10,5 km/h (2 Bft) 100,00 %
26.11.2016 16:04 7,0 C 6,7 C 5,0 C 84 % 0 lf 1017,8 hPa 0,0 l/m 2 min 0 min 38 W/m 10,5 km/h (2 Bft) 100,00 %
26.11.2016 16:06 6,9 C 6,7 C 5,0 C 84 % 0 lf 1017,8 hPa 0,0 l/m 2 min 0 min 35 W/m 12,6 km/h (3 Bft) 95,74 %
26.11.2016 16:08 6,9 C 6,7 C 5,0 C 84 % 0 lf 1017,7 hPa 0,0 l/m 2 min 0 min 33 W/m 12,6 km/h (3 Bft) 100,00 %
26.11.2016 16:10 6,8 C 6,7 C 5,0 C 84 % 0 lf 1017,7 hPa 0,0 l/m 2 min 0 min 32 W/m 8,4 km/h (2 Bft) 100,00 %
26.11.2016 16:12 6,8 C 6,7 C 5,0 C 84 % 0 lf 1017,7 hPa 0,0 l/m 2 min 0 min 31 W/m 8,4 km/h (2 Bft) 100,00 %
26.11.2016 16:14 6,7 C 6,1 C 5,0 C 85 % 0 lf 1017,8 hPa 0,0 l/m 2 min 0 min 28 W/m 10,5 km/h (2 Bft) 97,87 %
26.11.2016 16:16 6,7 C 6,1 C 5,0 C 85 % 0 lf 1017,8 hPa 0,0 l/m 2 min 0 min 27 W/m 10,5 km/h (2 Bft) 95,74 %
26.11.2016 16:18 6,7 C 6,1 C 5,0 C 85 % 0 lf 1017,8 hPa 0,0 l/m 2 min 0 min 25 W/m 8,4 km/h (2 Bft) 97,87 %
26.11.2016 16:20 6,6 C 6,1 C 5,0 C 85 % 0 lf 1017,8 hPa 0,0 l/m 2 min 0 min 22 W/m 10,5 km/h (2 Bft) 97,83 %
26.11.2016 16:22 6,6 C 6,1 C 4,4 C 85 % 0 lf 1017,8 hPa 0,0 l/m 0 min 0 min 19 W/m 6,3 km/h (2 Bft) 100,00 %
26.11.2016 16:24 6,5 C 6,1 C 4,4 C 85 % 0 lf 1017,8 hPa 0,0 l/m 0 min 0 min 18 W/m 8,4 km/h (2 Bft) 95,74 %
26.11.2016 16:26 6,5 C 6,1 C 4,4 C 85 % 0 lf 1017,8 hPa 0,0 l/m 0 min 0 min 15 W/m 8,4 km/h (2 Bft) 95,74 %
26.11.2016 16:28 6,4 C 6,1 C 4,4 C 86 % 0 lf 1017,8 hPa 0,0 l/m 0 min 0 min 14 W/m 6,3 km/h (2 Bft) 97,87 %
26.11.2016 16:30 6,4 C 6,1 C 4,4 C 86 % 0 lf 1017,8 hPa 0,0 l/m 0 min 0 min 15 W/m 8,4 km/h (2 Bft) 100,00 %
26.11.2016 16:32 6,4 C 6,1 C 4,4 C 86 % 0 lf 1017,8 hPa 0,0 l/m 0 min 0 min 16 W/m 10,5 km/h (2 Bft) 100,00 %
26.11.2016 16:34 6,4 C 6,1 C 4,4 C 86 % 0 lf 1017,8 hPa 0,0 l/m 0 min 0 min 16 W/m 10,5 km/h (2 Bft) 100,00 %
26.11.2016 16:36 6,4 C 5,6 C 4,4 C 86 % 0 lf 1017,9 hPa 0,0 l/m 0 min 0 min 16 W/m 8,4 km/h (2 Bft) 94,29 %
26.11.2016 16:38 6,3 C 5,6 C 4,4 C 86 % 0 lf 1017,8 hPa 0,0 l/m 0 min 0 min 16 W/m 8,4 km/h (2 Bft) 95,74 %
26.11.2016 16:40 6,2 C 5,6 C 4,4 C 86 % 0 lf 1017,8 hPa 0,0 l/m 0 min 0 min 14 W/m 10,5 km/h (2 Bft) 95,74 %
26.11.2016 16:42 6,2 C 5,6 C 4,4 C 86 % 0 lf 1017,8 hPa 0,0 l/m 0 min 0 min 13 W/m 10,5 km/h (2 Bft) 91,49 %
26.11.2016 16:44 6,2 C 5,6 C 4,4 C 86 % 0 lf 1017,9 hPa 0,0 l/m 0 min 0 min 12 W/m 8,4 km/h (2 Bft) 93,62 %
26.11.2016 16:46 6,1 C 5,6 C 4,4 C 86 % 0 lf 1017,9 hPa 0,0 l/m 0 min 0 min 9 W/m 12,6 km/h (3 Bft) 95,65 %
26.11.2016 16:48 6,1 C 5,6 C 4,4 C 86 % 0 lf 1017,8 hPa 0,0 l/m 0 min 0 min 7 W/m 14,6 km/h (3 Bft) 95,74 %
26.11.2016 16:50 6,0 C 5,6 C 3,9 C 86 % 0 lf 1017,9 hPa 0,0 l/m 0 min 0 min 0 W/m 10,5 km/h (2 Bft) 95,74 %
26.11.2016 16:52 5,9 C 5,6 C 3,9 C 87 % 0 lf 1017,9 hPa 0,0 l/m 0 min 0 min 0 W/m 10,5 km/h (2 Bft) 97,87 %
26.11.2016 16:54 5,9 C 5,6 C 3,9 C 87 % 0 lf 1017,9 hPa 0,0 l/m 0 min 0 min 5 W/m 8,4 km/h (2 Bft) 97,87 %
26.11.2016 16:56 5,8 C 5,0 C 3,9 C 86 % 0 lf 1017,9 hPa 0,0 l/m 0 min 0 min 5 W/m 8,4 km/h (2 Bft) 95,74 %
26.11.2016 16:58 5,8 C 5,0 C 3,9 C 86 % 0 lf 1017,9 hPa 0,0 l/m 0 min 0 min 5 W/m 8,4 km/h (2 Bft) 95,65 %
26.11.2016 17:00 5,8 C 5,0 C 3,9 C 87 % 0 lf 1017,9 hPa 0,0 l/m 0 min 0 min 5 W/m 6,3 km/h (2 Bft) 93,62 %
26.11.2016 17:02 5,7 C 5,0 C 3,9 C 87 % 0 lf 1018,0 hPa 0,0 l/m 0 min 0 min 5 W/m 8,4 km/h (2 Bft) 93,62 %
26.11.2016 17:04 5,7 C 5,0 C 3,9 C 87 % 0 lf 1018,0 hPa 0,0 l/m 0 min 0 min 5 W/m 8,4 km/h (2 Bft) 95,74 %
26.11.2016 17:06 5,7 C 5,0 C 3,9 C 87 % 0 lf 1018,0 hPa 0,0 l/m 0 min 0 min 5 W/m 6,3 km/h (2 Bft) 91,49 %
26.11.2016 17:08 5,6 C 5,0 C 3,9 C 87 % 0 lf 1017,9 hPa 0,0 l/m 0 min 0 min 5 W/m 8,4 km/h (2 Bft) 95,74 %
26.11.2016 17:10 5,6 C 5,0 C 3,9 C 87 % 0 lf 1018,0 hPa 0,0 l/m 0 min 0 min 5 W/m 8,4 km/h (2 Bft) 97,83 %
26.11.2016 17:12 5,6 C 5,0 C 3,9 C 87 % 0 lf 1017,9 hPa 0,0 l/m 0 min 0 min 5 W/m 6,3 km/h (2 Bft) 97,87 %
26.11.2016 17:14 5,5 C 5,0 C 3,9 C 87 % 0 lf 1017,9 hPa 0,0 l/m 0 min 0 min 5 W/m 4,2 km/h (1 Bft) 93,62 %
26.11.2016 17:16 5,4 C 5,0 C 3,9 C 87 % 0 lf 1018,0 hPa 0,0 l/m 0 min 0 min 5 W/m 4,2 km/h (1 Bft) 95,74 %
26.11.2016 17:18 5,4 C 5,0 C 3,9 C 87 % 0 lf 1018,0 hPa 0,0 l/m 0 min 0 min 5 W/m 6,3 km/h (2 Bft) 97,87 %
26.11.2016 17:20 5,4 C 5,0 C 3,3 C 87 % 0 lf 1018,0 hPa 0,0 l/m 0 min 0 min 5 W/m 4,2 km/h (1 Bft) 93,62 %
26.11.2016 17:22 5,4 C 4,4 C 3,3 C 87 % 0 lf 1018,0 hPa 0,0 l/m 0 min 0 min 5 W/m 2,1 km/h (1 Bft) 95,65 %
26.11.2016 17:24 5,4 C 4,4 C 3,3 C 87 % 0 lf 1018,0 hPa 0,0 l/m 0 min 0 min 5 W/m 2,1 km/h (1 Bft) 100,00 %
26.11.2016 17:26 5,3 C 4,4 C 3,3 C 87 % 0 lf 1018,0 hPa 0,0 l/m 0 min 0 min 5 W/m 2,1 km/h (1 Bft) 93,62 %
26.11.2016 17:28 5,3 C 4,4 C 3,3 C 87 % 0 lf 1018,0 hPa 0,0 l/m 0 min 0 min 5 W/m 0,0 km/h (0 Bft) 93,62 %
26.11.2016 17:30 5,3 C 4,4 C 3,3 C 87 % 0 lf 1018,0 hPa 0,0 l/m 0 min 0 min 5 W/m 6,3 km/h (2 Bft) 93,62 %
26.11.2016 17:32 5,3 C 4,4 C 3,3 C 87 % 0 lf 1018,0 hPa 0,0 l/m 0 min 0 min 5 W/m 2,1 km/h (1 Bft) 95,74 %
26.11.2016 17:34 5,2 C 4,4 C 3,3 C 87 % 0 lf 1018,1 hPa 0,0 l/m 0 min 0 min 5 W/m 4,2 km/h (1 Bft) 92,45 %
26.11.2016 17:35 5,2 C 4,4 C 2,8 C 87 % 0 lf 1018,0 hPa 0,0 l/m 0 min 0 min 5 W/m 2,1 km/h (1 Bft) 95,65 %
26.11.2016 17:36 5,2 C 4,4 C 2,8 C 87 % 0 lf 1018,0 hPa 0,0 l/m 0 min 0 min 5 W/m 2,1 km/h (1 Bft) 95,65 %
26.11.2016 17:38 5,2 C 4,4 C 2,8 C 87 % 0 lf 1018,1 hPa 0,0 l/m 0 min 0 min 5 W/m 2,1 km/h (1 Bft) 96,47 %
26.11.2016 17:40 5,2 C 3,9 C 2,8 C 87 % 0 lf 1018,1 hPa 0,0 l/m 0 min 0 min 5 W/m 4,2 km/h (1 Bft) 94,92 %
26.11.2016 17:42 5,1 C 3,9 C 2,8 C 87 % 0 lf 1018,0 hPa 0,0 l/m 0 min 0 min 1 W/m 2,1 km/h (1 Bft) 92,00 %
26.11.2016 17:44 5,1 C 3,9 C 2,8 C 87 % 0 lf 1018,0 hPa 0,0 l/m 0 min 0 min 0 W/m 2,1 km/h (1 Bft) 94,74 %
26.11.2016 17:46 5,1 C 3,9 C 2,2 C 87 % 0 lf 1018,1 hPa 0,0 l/m 0 min 0 min 0 W/m 2,1 km/h (1 Bft) 95,74 %
26.11.2016 17:48 5,1 C 3,9 C 2,2 C 87 % 0 lf 1018,2 hPa 0,0 l/m 0 min 0 min 0 W/m 4,2 km/h (1 Bft) 93,62 %
26.11.2016 17:50 5,0 C 3,9 C 2,2 C 87 % 0 lf 1018,0 hPa 0,0 l/m 0 min 0 min 1 W/m 2,1 km/h (1 Bft) 93,62 %
26.11.2016 17:52 5,0 C 3,9 C 2,2 C 87 % 0 lf 1018,1 hPa 0,0 l/m 0 min 0 min 5 W/m 4,2 km/h (1 Bft) 95,74 %
26.11.2016 17:54 4,9 C 3,9 C 2,2 C 87 % 0 lf 1018,0 hPa 0,0 l/m 0 min 0 min 5 W/m 6,3 km/h (2 Bft) 97,83 %
26.11.2016 17:56 4,9 C 3,9 C 2,2 C 87 % 0 lf 1018,1 hPa 0,0 l/m 0 min 0 min 5 W/m 6,3 km/h (2 Bft) 95,74 %
26.11.2016 17:58 4,9 C 3,9 C 2,8 C 87 % 0 lf 1018,2 hPa 0,0 l/m 0 min 0 min 5 W/m 6,3 km/h (2 Bft) 93,62 %
26.11.2016 18:00 4,9 C 3,9 C 2,8 C 87 % 0 lf 1018,1 hPa 0,0 l/m 0 min 0 min 5 W/m 6,3 km/h (2 Bft) 95,74 %
26.11.2016 18:02 4,8 C 3,9 C 2,2 C 87 % 0 lf 1018,1 hPa 0,0 l/m 0 min 0 min 5 W/m 4,2 km/h (1 Bft) 91,49 %
26.11.2016 18:06 4,8 C 3,9 C 2,8 C 88 % 0 lf 1018,2 hPa 0,0 l/m 0 min 0 min 5 W/m 6,3 km/h (2 Bft) 93,55 %
26.11.2016 18:08 4,7 C 3,9 C 2,8 C 88 % 0 lf 1018,2 hPa 0,0 l/m 0 min 0 min 5 W/m 8,4 km/h (2 Bft) 93,62 %
26.11.2016 18:10 4,7 C 3,9 C 2,8 C 88 % 0 lf 1018,2 hPa 0,0 l/m 0 min 0 min 5 W/m 6,3 km/h (2 Bft) 94,55 %
26.11.2016 18:12 4,7 C 3,9 C 2,8 C 88 % 0 lf 1018,2 hPa 0,0 l/m 0 min 0 min 5 W/m 6,3 km/h (2 Bft) 95,65 %
26.11.2016 18:14 4,7 C 3,9 C 2,8 C 88 % 0 lf 1018,2 hPa 0,0 l/m 0 min 0 min 5 W/m 6,3 km/h (2 Bft) 91,49 %
26.11.2016 18:16 4,6 C 3,9 C 2,8 C 88 % 0 lf 1018,2 hPa 0,0 l/m 0 min 0 min 5 W/m 6,3 km/h (2 Bft) 91,49 %
26.11.2016 18:18 4,6 C 3,9 C 2,8 C 88 % 0 lf 1018,2 hPa 0,0 l/m 0 min 0 min 5 W/m 2,1 km/h (1 Bft) 95,74 %
26.11.2016 18:20 4,6 C 3,9 C 2,2 C 88 % 0 lf 1018,2 hPa 0,0 l/m 0 min 0 min 5 W/m 2,1 km/h (1 Bft) 93,62 %
26.11.2016 18:21 4,6 C 3,9 C 2,2 C 88 % 0 lf 1018,2 hPa 0,0 l/m 0 min 0 min 5 W/m 2,1 km/h (1 Bft) 91,30 %
26.11.2016 18:22 4,6 C 3,9 C 2,2 C 88 % 0 lf 1018,3 hPa 0,0 l/m 0 min 0 min 5 W/m 4,2 km/h (1 Bft) 91,30 %
26.11.2016 18:23 4,5 C 3,9 C 2,2 C 88 % 0 lf 1018,3 hPa 0,0 l/m 0 min 0 min 5 W/m 4,2 km/h (1 Bft) 95,65 %
26.11.2016 18:24 4,5 C 3,9 C 2,2 C 88 % 0 lf 1018,3 hPa 0,0 l/m 0 min 0 min 5 W/m 2,1 km/h (1 Bft) 95,65 %
26.11.2016 18:25 4,5 C 3,9 C 2,2 C 88 % 0 lf 1018,2 hPa 0,0 l/m 0 min 0 min 5 W/m 2,1 km/h (1 Bft) 100,00 %
26.11.2016 18:26 4,5 C 3,9 C 2,2 C 88 % 0 lf 1018,3 hPa 0,0 l/m 0 min 0 min 5 W/m 2,1 km/h (1 Bft) 95,65 %
26.11.2016 18:28 4,4 C 3,9 C 2,2 C 88 % 0 lf 1018,2 hPa 0,0 l/m 0 min 0 min 5 W/m 0,0 km/h (0 Bft) 92,55 %
26.11.2016 18:30 4,4 C 3,9 C 2,2 C 88 % 0 lf 1018,2 hPa 0,0 l/m 0 min 0 min 5 W/m 2,1 km/h (1 Bft) 92,11 %
26.11.2016 18:32 4,4 C 3,3 C 2,2 C 88 % 0 lf 1018,2 hPa 0,0 l/m 0 min 0 min 5 W/m 6,3 km/h (2 Bft) 95,74 %
26.11.2016 18:34 4,4 C 3,3 C 2,2 C 88 % 0 lf 1018,2 hPa 0,0 l/m 0 min 0 min 5 W/m 6,3 km/h (2 Bft) 93,62 %
26.11.2016 18:36 4,4 C 3,3 C 2,2 C 88 % 0 lf 1018,2 hPa 0,0 l/m 0 min 0 min 5 W/m 4,2 km/h (1 Bft) 94,55 %
26.11.2016 18:38 4,3 C 3,3 C 2,2 C 88 % 0 lf 1018,2 hPa 0,0 l/m 0 min 0 min 5 W/m 2,1 km/h (1 Bft) 92,11 %
26.11.2016 18:40 4,3 C 3,3 C 2,2 C 89 % 0 lf 1018,3 hPa 0,0 l/m 0 min 0 min 5 W/m 4,2 km/h (1 Bft) 93,62 %
26.11.2016 18:42 4,3 C 3,3 C 2,2 C 89 % 0 lf 1018,3 hPa 0,0 l/m 0 min 0 min 5 W/m 2,1 km/h (1 Bft) 95,74 %
26.11.2016 18:44 4,3 C 3,3 C 1,7 C 89 % 0 lf 1018,3 hPa 0,0 l/m 0 min 0 min 5 W/m 2,1 km/h (1 Bft) 97,87 %
26.11.2016 18:46 4,2 C 3,3 C 1,7 C 89 % 0 lf 1018,2 hPa 0,0 l/m 0 min 0 min 5 W/m 4,2 km/h (1 Bft) 90,91 %
26.11.2016 18:48 4,2 C 3,3 C 1,7 C 89 % 0 lf 1018,2 hPa 0,0 l/m 0 min 0 min 5 W/m 4,2 km/h (1 Bft) 97,37 %
26.11.2016 18:50 4,2 C 3,3 C 2,2 C 89 % 0 lf 1018,3 hPa 0,0 l/m 0 min 0 min 5 W/m 6,3 km/h (2 Bft) 93,75 %
26.11.2016 18:52 4,2 C 3,3 C 2,2 C 89 % 0 lf 1018,3 hPa 0,0 l/m 0 min 0 min 5 W/m 6,3 km/h (2 Bft) 95,65 %
26.11.2016 18:54 4,2 C 3,3 C 2,2 C 89 % 0 lf 1018,2 hPa 0,0 l/m 0 min 0 min 5 W/m 6,3 km/h (2 Bft) 92,86 %
26.11.2016 18:56 4,1 C 3,3 C 2,2 C 89 % 0 lf 1018,2 hPa 0,0 l/m 0 min 0 min 5 W/m 4,2 km/h (1 Bft) 97,37 %
26.11.2016 18:58 4,1 C 3,3 C 1,7 C 89 % 0 lf 1018,3 hPa 0,0 l/m 0 min 0 min 5 W/m 2,1 km/h (1 Bft) 97,87 %
26.11.2016 19:00 4,1 C 3,3 C 1,7 C 89 % 1 lf 1018,3 hPa 0,0 l/m 0 min 0 min 5 W/m 6,3 km/h (2 Bft) 95,74 %
26.11.2016 19:02 4,0 C 2,8 C 1,7 C 89 % 1 lf 1018,3 hPa 0,0 l/m 0 min 0 min 5 W/m 2,1 km/h (1 Bft) 98,18 %
26.11.2016 19:04 4,0 C 2,8 C 1,7 C 89 % 1 lf 1018,2 hPa 0,0 l/m 0 min 0 min 5 W/m 2,1 km/h (1 Bft) 100,00 %
26.11.2016 19:06 4,0 C 2,8 C 1,7 C 89 % 1 lf 1018,2 hPa 0,0 l/m 0 min 0 min 5 W/m 4,2 km/h (1 Bft) 97,37 %
26.11.2016 19:08 3,9 C 2,8 C 1,1 C 89 % 1 lf 1018,2 hPa 0,0 l/m 0 min 0 min 5 W/m 4,2 km/h (1 Bft) 97,87 %
26.11.2016 19:10 3,9 C 2,8 C 1,1 C 89 % 1 lf 1018,2 hPa 0,0 l/m 0 min 0 min 5 W/m 4,2 km/h (1 Bft) 100,00 %
26.11.2016 19:12 3,9 C 2,8 C 1,1 C 89 % 1 lf 1018,2 hPa 0,0 l/m 0 min 0 min 5 W/m 6,3 km/h (2 Bft) 93,62 %
26.11.2016 19:14 3,8 C 2,8 C 1,1 C 89 % 1 lf 1018,3 hPa 0,0 l/m 0 min 0 min 5 W/m 6,3 km/h (2 Bft) 100,00 %
26.11.2016 19:16 3,8 C 2,8 C 1,1 C 89 % 1 lf 1018,3 hPa 0,0 l/m 0 min 0 min 5 W/m 6,3 km/h (2 Bft) 95,45 %
26.11.2016 19:18 3,8 C 2,8 C 1,7 C 89 % 1 lf 1018,2 hPa 0,0 l/m 0 min 0 min 5 W/m 6,3 km/h (2 Bft) 96,00 %
26.11.2016 19:20 3,7 C 2,8 C 1,7 C 89 % 1 lf 1018,3 hPa 0,0 l/m 0 min 0 min 5 W/m 4,2 km/h (1 Bft) 97,87 %
26.11.2016 19:22 3,7 C 2,8 C 1,7 C 89 % 1 lf 1018,3 hPa 0,0 l/m 0 min 0 min 5 W/m 4,2 km/h (1 Bft) 97,87 %
26.11.2016 19:24 3,7 C 2,8 C 1,7 C 89 % 1 lf 1018,3 hPa 0,0 l/m 0 min 0 min 5 W/m 4,2 km/h (1 Bft) 97,87 %
26.11.2016 19:26 3,6 C 2,8 C 1,7 C 90 % 1 lf 1018,4 hPa 0,0 l/m 0 min 0 min 5 W/m 6,3 km/h (2 Bft) 93,02 %
26.11.2016 19:28 3,6 C 2,8 C 1,7 C 90 % 1 lf 1018,5 hPa 0,0 l/m 0 min 0 min 5 W/m 8,4 km/h (2 Bft) 97,87 %
26.11.2016 19:30 3,6 C 2,8 C 1,7 C 90 % 0 lf 1018,5 hPa 0,0 l/m 0 min 0 min 5 W/m 6,3 km/h (2 Bft) 98,00 %
26.11.2016 19:32 3,5 C 2,8 C 1,7 C 90 % 0 lf 1018,6 hPa 0,0 l/m 0 min 0 min 5 W/m 6,3 km/h (2 Bft) 97,87 %
26.11.2016 19:34 3,5 C 2,8 C 1,7 C 90 % 0 lf 1018,5 hPa 0,0 l/m 0 min 0 min 5 W/m 6,3 km/h (2 Bft) 95,74 %
26.11.2016 19:36 3,4 C 2,8 C 1,7 C 90 % 0 lf 1018,5 hPa 0,0 l/m 0 min 0 min 5 W/m 6,3 km/h (2 Bft) 95,35 %
26.11.2016 19:38 3,4 C 2,8 C 1,7 C 90 % 0 lf 1018,5 hPa 0,0 l/m 0 min 0 min 5 W/m 6,3 km/h (2 Bft) 93,62 %
26.11.2016 19:40 3,3 C 2,8 C 1,7 C 90 % 0 lf 1018,5 hPa 0,0 l/m 0 min 0 min 5 W/m 8,4 km/h (2 Bft) 98,00 %
26.11.2016 19:42 3,3 C 2,8 C 1,7 C 90 % 0 lf 1018,4 hPa 0,0 l/m 0 min 0 min 5 W/m 6,3 km/h (2 Bft) 97,87 %
26.11.2016 19:44 3,3 C 2,8 C 1,1 C 90 % 0 lf 1018,4 hPa 0,0 l/m 0 min 0 min 5 W/m 6,3 km/h (2 Bft) 91,49 %
26.11.2016 19:46 3,2 C 2,8 C 1,1 C 90 % 0 lf 1018,5 hPa 0,0 l/m 0 min 0 min 5 W/m 10,5 km/h (2 Bft) 95,45 %
26.11.2016 19:48 3,2 C 2,2 C 1,1 C 90 % 0 lf 1018,6 hPa 0,0 l/m 0 min 0 min 5 W/m 10,5 km/h (2 Bft) 93,88 %
26.11.2016 19:50 3,1 C 2,2 C 1,1 C 90 % 0 lf 1018,6 hPa 0,0 l/m 0 min 0 min 5 W/m 10,5 km/h (2 Bft) 97,87 %
26.11.2016 19:52 3,1 C 2,2 C 1,1 C 90 % 0 lf 1018,6 hPa 0,0 l/m 0 min 0 min 5 W/m 8,4 km/h (2 Bft) 97,87 %
26.11.2016 19:54 3,0 C 2,2 C 1,1 C 90 % 0 lf 1018,6 hPa 0,0 l/m 0 min 0 min 5 W/m 10,5 km/h (2 Bft) 97,73 %
26.11.2016 19:56 2,9 C 2,2 C 1,1 C 90 % 0 lf 1018,6 hPa 0,0 l/m 0 min 0 min 5 W/m 6,3 km/h (2 Bft) 96,00 %
26.11.2016 19:58 2,9 C 2,2 C 1,1 C 90 % 0 lf 1018,5 hPa 0,0 l/m 0 min 0 min 5 W/m 4,2 km/h (1 Bft) 97,87 %
26.11.2016 20:00 2,9 C 2,2 C 1,1 C 90 % 0 lf 1018,5 hPa 0,0 l/m 0 min 0 min 5 W/m 4,2 km/h (1 Bft) 95,65 %
26.11.2016 20:02 2,9 C 2,2 C 1,1 C 91 % 1 lf 1018,5 hPa 0,0 l/m 0 min 0 min 5 W/m 4,2 km/h (1 Bft) 93,62 %
26.11.2016 20:04 2,8 C 2,2 C 1,1 C 91 % 1 lf 1018,5 hPa 0,0 l/m 0 min 0 min 5 W/m 4,2 km/h (1 Bft) 95,45 %
26.11.2016 20:06 2,8 C 2,2 C 1,1 C 91 % 1 lf 1018,5 hPa 0,0 l/m 0 min 0 min 5 W/m 4,2 km/h (1 Bft) 100,00 %
26.11.2016 20:08 2,8 C 2,2 C 1,1 C 91 % 1 lf 1018,5 hPa 0,0 l/m 0 min 0 min 5 W/m 4,2 km/h (1 Bft) 96,23 %
26.11.2016 20:10 2,7 C 2,2 C 0,6 C 91 % 1 lf 1018,4 hPa 0,0 l/m 0 min 0 min 5 W/m 2,1 km/h (1 Bft) 97,37 %
26.11.2016 20:12 2,7 C 1,7 C 0,6 C 91 % 1 lf 1018,5 hPa 0,0 l/m 0 min 0 min 5 W/m 6,3 km/h (2 Bft) 97,96 %
26.11.2016 20:14 2,7 C 1,7 C 0,6 C 91 % 1 lf 1018,4 hPa 0,0 l/m 0 min 0 min 5 W/m 4,2 km/h (1 Bft) 100,00 %
26.11.2016 20:16 2,7 C 1,7 C 0,6 C 91 % 1 lf 1018,4 hPa 0,0 l/m 0 min 0 min 5 W/m 2,1 km/h (1 Bft) 97,87 %
26.11.2016 20:18 2,6 C 1,7 C 0,6 C 91 % 1 lf 1018,4 hPa 0,0 l/m 0 min 0 min 5 W/m 0,0 km/h (0 Bft) 95,74 %
26.11.2016 20:20 2,6 C 1,1 C 0,6 C 91 % 1 lf 1018,4 hPa 0,0 l/m 0 min 0 min 5 W/m 0,0 km/h (0 Bft) 98,11 %
26.11.2016 20:22 2,6 C 1,1 C 0,0 C 91 % 1 lf 1018,4 hPa 0,0 l/m 0 min 0 min 5 W/m 2,1 km/h (1 Bft) 94,74 %
26.11.2016 20:24 2,5 C 1,1 C 0,0 C 91 % 1 lf 1018,4 hPa 0,0 l/m 0 min 0 min 5 W/m 4,2 km/h (1 Bft) 95,74 %
26.11.2016 20:26 2,5 C 1,1 C 0,0 C 91 % 1 lf 1018,4 hPa 0,0 l/m 0 min 0 min 5 W/m 0,0 km/h (0 Bft) 95,92 %
26.11.2016 20:28 2,4 C 1,1 C 0,0 C 91 % 2 lf 1018,3 hPa 0,0 l/m 0 min 0 min 5 W/m 0,0 km/h (0 Bft) 95,74 %
26.11.2016 20:30 2,4 C 1,1 C 0,0 C 91 % 2 lf 1018,3 hPa 0,0 l/m 0 min 0 min 5 W/m 2,1 km/h (1 Bft) 98,11 %
26.11.2016 20:32 2,4 C 0,6 C 0,0 C 91 % 2 lf 1018,3 hPa 0,0 l/m 0 min 0 min 5 W/m 2,1 km/h (1 Bft) 97,44 %
26.11.2016 20:34 2,3 C 0,6 C 0,0 C 91 % 2 lf 1018,4 hPa 0,0 l/m 0 min 0 min 5 W/m 2,1 km/h (1 Bft) 95,92 %
26.11.2016 20:36 2,3 C 0,6 C 0,0 C 91 % 2 lf 1018,3 hPa 0,0 l/m 0 min 0 min 5 W/m 0,0 km/h (0 Bft) 93,48 %
26.11.2016 20:38 2,3 C 0,6 C 0,0 C 91 % 2 lf 1018,4 hPa 0,0 l/m 0 min 0 min 5 W/m 0,0 km/h (0 Bft) 98,15 %
26.11.2016 20:40 2,2 C 0,6 C -0,6 C 91 % 2 lf 1018,4 hPa 0,0 l/m 0 min 0 min 5 W/m 0,0 km/h (0 Bft) 92,11 %
26.11.2016 20:42 2,2 C 0,6 C -0,6 C 91 % 2 lf 1018,4 hPa 0,0 l/m 0 min 0 min 5 W/m 0,0 km/h (0 Bft) 93,88 %
26.11.2016 20:44 2,2 C 0,6 C -0,6 C 91 % 3 lf 1018,4 hPa 0,0 l/m 0 min 0 min 5 W/m 4,2 km/h (1 Bft) 95,74 %
26.11.2016 20:46 2,1 C 0,6 C -0,6 C 91 % 3 lf 1018,4 hPa 0,0 l/m 0 min 0 min 5 W/m 4,2 km/h (1 Bft) 93,62 %
26.11.2016 20:48 2,1 C 0,6 C -0,6 C 91 % 3 lf 1018,4 hPa 0,0 l/m 0 min 0 min 0 W/m 0,0 km/h (0 Bft) 98,11 %
26.11.2016 20:50 2,1 C 0,6 C -0,6 C 91 % 3 lf 1018,4 hPa 0,0 l/m 0 min 0 min 0 W/m 0,0 km/h (0 Bft) 94,74 %
26.11.2016 20:52 2,0 C 0,0 C -0,6 C 91 % 3 lf 1018,4 hPa 0,0 l/m 0 min 0 min 5 W/m 0,0 km/h (0 Bft) 97,96 %
26.11.2016 20:54 1,9 C 0,0 C -0,6 C 91 % 3 lf 1018,4 hPa 0,0 l/m 0 min 0 min 0 W/m 0,0 km/h (0 Bft) 93,62 %
26.11.2016 20:56 1,9 C 0,0 C -0,6 C 91 % 3 lf 1018,4 hPa 0,0 l/m 0 min 0 min 0 W/m 0,0 km/h (0 Bft) 100,00 %
26.11.2016 20:58 1,9 C 0,0 C -0,6 C 91 % 3 lf 1018,4 hPa 0,0 l/m 0 min 0 min 0 W/m 0,0 km/h (0 Bft) 93,75 %
26.11.2016 21:00 1,8 C 0,0 C -0,6 C 91 % 3 lf 1018,4 hPa 0,0 l/m 0 min 0 min 5 W/m 0,0 km/h (0 Bft) 97,83 %
26.11.2016 21:02 1,8 C 0,0 C -0,6 C 91 % 3 lf 1018,4 hPa 0,0 l/m 0 min 0 min 5 W/m 0,0 km/h (0 Bft) 96,30 %
26.11.2016 21:04 1,8 C 0,0 C -0,6 C 91 % 4 lf 1018,3 hPa 0,0 l/m 0 min 0 min 5 W/m 0,0 km/h (0 Bft) 94,74 %
26.11.2016 21:06 1,7 C 0,0 C -0,6 C 91 % 4 lf 1018,4 hPa 0,0 l/m 0 min 0 min 5 W/m 0,0 km/h (0 Bft) 98,00 %
26.11.2016 21:08 1,7 C 0,0 C -0,6 C 91 % 4 lf 1018,4 hPa 0,0 l/m 0 min 0 min 0 W/m 4,2 km/h (1 Bft) 95,92 %
26.11.2016 21:10 1,7 C 0,6 C -0,6 C 91 % 4 lf 1018,5 hPa 0,0 l/m 0 min 0 min 0 W/m 4,2 km/h (1 Bft) 95,65 %
26.11.2016 21:12 1,7 C 0,6 C -0,6 C 91 % 4 lf 1018,4 hPa 0,0 l/m 0 min 0 min 0 W/m 2,1 km/h (1 Bft) 92,86 %
26.11.2016 21:14 1,7 C 0,0 C -1,1 C 91 % 4 lf 1018,5 hPa 0,0 l/m 0 min 0 min 0 W/m 2,1 km/h (1 Bft) 95,74 %
26.11.2016 21:16 1,6 C 0,0 C -1,1 C 91 % 4 lf 1018,5 hPa 0,0 l/m 0 min 0 min 0 W/m 2,1 km/h (1 Bft) 95,74 %
26.11.2016 21:18 1,6 C 0,0 C -1,1 C 91 % 4 lf 1018,4 hPa 0,0 l/m 0 min 0 min 0 W/m 2,1 km/h (1 Bft) 96,00 %
26.11.2016 21:20 1,6 C 0,0 C -1,1 C 91 % 5 lf 1018,5 hPa 0,0 l/m 0 min 0 min 0 W/m 2,1 km/h (1 Bft) 97,96 %
26.11.2016 21:22 1,5 C 0,0 C -1,1 C 91 % 5 lf 1018,5 hPa 0,0 l/m 0 min 0 min 2 W/m 2,1 km/h (1 Bft) 95,65 %
26.11.2016 21:24 1,5 C 0,0 C -1,1 C 91 % 6 lf 1018,5 hPa 0,0 l/m 0 min 0 min 0 W/m 2,1 km/h (1 Bft) 95,74 %
26.11.2016 21:26 1,4 C -0,6 C -1,1 C 91 % 6 lf 1018,4 hPa 0,0 l/m 0 min 0 min 0 W/m 2,1 km/h (1 Bft) 97,62 %
26.11.2016 21:28 1,4 C -0,6 C -1,1 C 91 % 7 lf 1018,5 hPa 0,0 l/m 0 min 0 min 1 W/m 4,2 km/h (1 Bft) 95,74 %
26.11.2016 21:30 1,4 C -0,6 C -1,1 C 91 % 8 lf 1018,6 hPa 0,0 l/m 0 min 0 min 3 W/m 2,1 km/h (1 Bft) 94,00 %
26.11.2016 21:32 1,4 C -0,6 C -1,1 C 91 % 9 lf 1018,6 hPa 0,0 l/m 0 min 0 min 5 W/m 4,2 km/h (1 Bft) 97,92 %
26.11.2016 21:34 1,3 C -0,6 C -1,1 C 91 % 9 lf 1018,6 hPa 0,0 l/m 0 min 0 min 5 W/m 2,1 km/h (1 Bft) 100,00 %
26.11.2016 21:36 1,3 C -0,6 C -1,1 C 91 % 9 lf 1018,6 hPa 0,0 l/m 0 min 0 min 0 W/m 4,2 km/h (1 Bft) 97,62 %
26.11.2016 21:38 1,3 C -0,6 C -1,1 C 91 % 10 lf 1018,7 hPa 0,0 l/m 0 min 0 min 0 W/m 2,1 km/h (1 Bft) 100,00 %
26.11.2016 21:40 1,3 C -0,6 C -1,1 C 91 % 10 lf 1018,6 hPa 0,0 l/m 0 min 0 min 0 W/m 0,0 km/h (0 Bft) 93,88 %
26.11.2016 21:42 1,2 C -0,6 C -1,1 C 91 % 11 lf 1018,6 hPa 0,0 l/m 0 min 0 min 5 W/m 0,0 km/h (0 Bft) 97,87 %
26.11.2016 21:44 1,2 C -0,6 C -1,1 C 91 % 11 lf 1018,5 hPa 0,0 l/m 0 min 0 min 5 W/m 2,1 km/h (1 Bft) 97,56 %
26.11.2016 21:46 1,2 C -0,6 C -1,1 C 91 % 12 lf 1018,6 hPa 0,0 l/m 0 min 0 min 5 W/m 4,2 km/h (1 Bft) 96,00 %
26.11.2016 21:48 1,2 C 0,0 C -1,1 C 91 % 12 lf 1018,6 hPa 0,0 l/m 0 min 0 min 5 W/m 2,1 km/h (1 Bft) 97,87 %
26.11.2016 21:50 1,1 C -0,6 C -1,1 C 91 % 13 lf 1018,5 hPa 0,0 l/m 0 min 0 min 5 W/m 0,0 km/h (0 Bft) 97,96 %
26.11.2016 21:52 1,1 C -0,6 C -1,1 C 91 % 13 lf 1018,6 hPa 0,0 l/m 0 min 0 min 0 W/m 0,0 km/h (0 Bft) 97,87 %
26.11.2016 21:54 1,1 C -0,6 C -1,1 C 91 % 13 lf 1018,6 hPa 0,0 l/m 0 min 0 min 0 W/m 0,0 km/h (0 Bft) 93,62 %
26.11.2016 21:56 1,1 C -0,6 C -1,1 C 91 % 13 lf 1018,6 hPa 0,0 l/m 0 min 0 min 0 W/m 0,0 km/h (0 Bft) 92,68 %
26.11.2016 21:58 1,0 C -0,6 C -1,7 C 91 % 14 lf 1018,6 hPa 0,0 l/m 0 min 0 min 0 W/m 0,0 km/h (0 Bft) 94,00 %
26.11.2016 22:00 1,0 C -0,6 C -1,7 C 91 % 14 lf 1018,6 hPa 0,0 l/m 0 min 0 min 0 W/m 0,0 km/h (0 Bft) 93,88 %
26.11.2016 22:02 1,0 C -0,6 C -1,7 C 91 % 14 lf 1018,6 hPa 0,0 l/m 0 min 0 min 0 W/m 0,0 km/h (0 Bft) 95,74 %
26.11.2016 22:04 0,9 C -1,1 C -1,7 C 91 % 15 lf 1018,6 hPa 0,0 l/m 0 min 0 min 0 W/m 0,0 km/h (0 Bft) 95,74 %
26.11.2016 22:06 0,9 C -1,1 C -1,7 C 91 % 15 lf 1018,6 hPa 0,0 l/m 0 min 0 min 0 W/m 2,1 km/h (1 Bft) 95,74 %
26.11.2016 22:08 0,9 C -1,1 C -1,7 C 91 % 15 lf 1018,6 hPa 0,0 l/m 0 min 0 min 0 W/m 2,1 km/h (1 Bft) 95,65 %
26.11.2016 22:10 0,9 C -0,6 C -1,1 C 91 % 15 lf 1018,6 hPa 0,0 l/m 0 min 0 min 0 W/m 2,1 km/h (1 Bft) 90,48 %
26.11.2016 22:12 0,9 C -0,6 C -1,7 C 91 % 15 lf 1018,6 hPa 0,0 l/m 0 min 0 min 5 W/m 4,2 km/h (1 Bft) 94,00 %
26.11.2016 22:14 0,8 C -0,6 C -1,7 C 91 % 15 lf 1018,6 hPa 0,0 l/m 0 min 0 min 5 W/m 0,0 km/h (0 Bft) 95,92 %
26.11.2016 22:16 0,8 C -0,6 C -1,7 C 91 % 15 lf 1018,6 hPa 0,0 l/m 0 min 0 min 5 W/m 0,0 km/h (0 Bft) 95,74 %
26.11.2016 22:18 0,8 C -0,6 C -1,7 C 91 % 15 lf 1018,7 hPa 0,0 l/m 0 min 0 min 5 W/m 0,0 km/h (0 Bft) 95,12 %
26.11.2016 22:20 0,8 C -1,1 C -1,7 C 91 % 15 lf 1018,6 hPa 0,0 l/m 0 min 0 min 5 W/m 2,1 km/h (1 Bft) 94,00 %
26.11.2016 22:22 0,8 C -1,1 C -1,7 C 91 % 15 lf 1018,6 hPa 0,0 l/m 0 min 0 min 5 W/m 2,1 km/h (1 Bft) 91,49 %
26.11.2016 22:24 0,7 C -1,1 C -1,7 C 91 % 15 lf 1018,7 hPa 0,0 l/m 0 min 0 min 5 W/m 2,1 km/h (1 Bft) 95,92 %
26.11.2016 22:26 0,7 C -1,1 C -1,7 C 91 % 15 lf 1018,7 hPa 0,0 l/m 0 min 0 min 5 W/m 2,1 km/h (1 Bft) 95,74 %
26.11.2016 22:28 0,7 C -1,1 C -1,7 C 91 % 15 lf 1018,7 hPa 0,0 l/m 0 min 0 min 5 W/m 2,1 km/h (1 Bft) 97,62 %
26.11.2016 22:30 0,7 C -1,1 C -1,7 C 91 % 15 lf 1018,7 hPa 0,0 l/m 0 min 0 min 5 W/m 2,1 km/h (1 Bft) 95,92 %
26.11.2016 22:32 0,6 C -1,1 C -1,7 C 91 % 15 lf 1018,7 hPa 0,0 l/m 0 min 0 min 4 W/m 4,2 km/h (1 Bft) 93,88 %
26.11.2016 22:34 0,6 C -1,1 C -1,7 C 91 % 15 lf 1018,7 hPa 0,0 l/m 0 min 0 min 0 W/m 0,0 km/h (0 Bft) 97,87 %
26.11.2016 22:36 0,6 C -1,1 C -1,7 C 91 % 15 lf 1018,6 hPa 0,0 l/m 0 min 0 min 0 W/m 0,0 km/h (0 Bft) 95,24 %
26.11.2016 22:38 0,5 C -1,1 C -1,7 C 91 % 15 lf 1018,6 hPa 0,0 l/m 0 min 0 min 0 W/m 0,0 km/h (0 Bft) 95,74 %
26.11.2016 22:40 0,5 C -1,1 C -1,7 C 92 % 15 lf 1018,6 hPa 0,0 l/m 0 min 0 min 0 W/m 0,0 km/h (0 Bft) 97,96 %
26.11.2016 22:42 0,5 C -1,1 C -1,7 C 92 % 15 lf 1018,6 hPa 0,0 l/m 0 min 0 min 0 W/m 0,0 km/h (0 Bft) 93,62 %
26.11.2016 22:44 0,5 C -1,1 C -1,7 C 92 % 15 lf 1018,5 hPa 0,0 l/m 0 min 0 min 0 W/m 0,0 km/h (0 Bft) 100,00 %
26.11.2016 22:46 0,5 C -1,1 C -1,7 C 92 % 15 lf 1018,6 hPa 0,0 l/m 0 min 0 min 0 W/m 0,0 km/h (0 Bft) 97,87 %
26.11.2016 22:48 0,5 C -1,1 C -1,7 C 92 % 15 lf 1018,6 hPa 0,0 l/m 0 min 0 min 0 W/m 0,0 km/h (0 Bft) 95,24 %
26.11.2016 22:50 0,5 C -1,1 C -1,7 C 92 % 15 lf 1018,6 hPa 0,0 l/m 0 min 0 min 1 W/m 4,2 km/h (1 Bft) 98,00 %
26.11.2016 22:52 0,5 C -1,1 C -1,7 C 92 % 15 lf 1018,6 hPa 0,0 l/m 0 min 0 min 0 W/m 2,1 km/h (1 Bft) 95,92 %
26.11.2016 22:54 0,4 C -1,1 C -1,7 C 92 % 15 lf 1018,6 hPa 0,0 l/m 0 min 0 min 0 W/m 2,1 km/h (1 Bft) 93,48 %
26.11.2016 22:56 0,4 C -1,1 C -1,7 C 92 % 15 lf 1018,6 hPa 0,0 l/m 0 min 0 min 5 W/m 0,0 km/h (0 Bft) 97,62 %
26.11.2016 22:58 0,4 C -1,1 C -1,7 C 92 % 15 lf 1018,6 hPa 0,0 l/m 0 min 0 min 5 W/m 0,0 km/h (0 Bft) 94,00 %
26.11.2016 23:00 0,4 C -1,1 C -1,7 C 92 % 15 lf 1018,6 hPa 0,0 l/m 0 min 0 min 5 W/m 0,0 km/h (0 Bft) 97,96 %
26.11.2016 23:02 0,3 C -1,1 C -1,7 C 92 % 15 lf 1018,6 hPa 0,0 l/m 0 min 0 min 5 W/m 0,0 km/h (0 Bft) 93,62 %
26.11.2016 23:04 0,3 C -1,1 C -1,7 C 92 % 15 lf 1018,6 hPa 0,0 l/m 0 min 0 min 5 W/m 0,0 km/h (0 Bft) 97,87 %
26.11.2016 23:06 0,3 C -1,1 C -1,7 C 92 % 15 lf 1018,5 hPa 0,0 l/m 0 min 0 min 0 W/m 0,0 km/h (0 Bft) 92,68 %
26.11.2016 23:08 0,3 C -1,7 C -1,7 C 92 % 15 lf 1018,6 hPa 0,0 l/m 0 min 0 min 0 W/m 2,1 km/h (1 Bft) 98,00 %
26.11.2016 23:10 0,3 C -1,7 C -1,7 C 92 % 15 lf 1018,6 hPa 0,0 l/m 0 min 0 min 4 W/m 4,2 km/h (1 Bft) 91,84 %
26.11.2016 23:12 0,2 C -1,7 C -1,7 C 92 % 15 lf 1018,6 hPa 0,0 l/m 0 min 0 min 2 W/m 4,2 km/h (1 Bft) 97,87 %
26.11.2016 23:14 0,2 C -1,7 C -2,2 C 92 % 15 lf 1018,6 hPa 0,0 l/m 0 min 0 min 0 W/m 2,1 km/h (1 Bft) 97,62 %
26.11.2016 23:16 0,2 C -1,1 C -2,2 C 92 % 15 lf 1018,6 hPa 0,0 l/m 0 min 0 min 0 W/m 2,1 km/h (1 Bft) 97,96 %
26.11.2016 23:18 0,2 C -1,1 C -2,2 C 92 % 15 lf 1018,6 hPa 0,0 l/m 0 min 0 min 0 W/m 2,1 km/h (1 Bft) 97,87 %
26.11.2016 23:20 0,2 C -1,7 C -2,2 C 92 % 15 lf 1018,6 hPa 0,0 l/m 0 min 0 min 0 W/m 2,1 km/h (1 Bft) 97,96 %
26.11.2016 23:22 0,2 C -1,7 C -2,2 C 92 % 15 lf 1018,7 hPa 0,0 l/m 0 min 0 min 5 W/m 0,0 km/h (0 Bft) 91,49 %
26.11.2016 23:24 0,1 C -1,7 C -2,2 C 92 % 15 lf 1018,7 hPa 0,0 l/m 0 min 0 min 0 W/m 0,0 km/h (0 Bft) 97,62 %
26.11.2016 23:26 0,1 C -1,7 C -2,2 C 92 % 15 lf 1018,7 hPa 0,0 l/m 0 min 0 min 5 W/m 0,0 km/h (0 Bft) 94,00 %
26.11.2016 23:28 0,1 C -1,7 C -2,2 C 92 % 15 lf 1018,6 hPa 0,0 l/m 0 min 0 min 5 W/m 2,1 km/h (1 Bft) 97,96 %
26.11.2016 23:30 0,1 C -1,7 C -2,2 C 92 % 15 lf 1018,6 hPa 0,0 l/m 0 min 0 min 0 W/m 2,1 km/h (1 Bft) 97,83 %
26.11.2016 23:32 0,1 C -1,7 C -2,2 C 92 % 15 lf 1018,7 hPa 0,0 l/m 0 min 0 min 0 W/m 2,1 km/h (1 Bft) 97,62 %
26.11.2016 23:34 0,0 C -1,7 C -2,2 C 92 % 15 lf 1018,7 hPa 0,0 l/m 0 min 0 min 0 W/m 0,0 km/h (0 Bft) 95,74 %
26.11.2016 23:36 0,0 C -1,7 C -2,2 C 92 % 15 lf 1018,7 hPa 0,0 l/m 0 min 0 min 0 W/m 0,0 km/h (0 Bft) 98,00 %
26.11.2016 23:38 0,0 C -1,7 C -2,2 C 92 % 15 lf 1018,7 hPa 0,0 l/m 0 min 0 min 0 W/m 0,0 km/h (0 Bft) 95,92 %
26.11.2016 23:40 -0,1 C -1,7 C -2,2 C 92 % 15 lf 1018,7 hPa 0,0 l/m 0 min 0 min 0 W/m 0,0 km/h (0 Bft) 95,74 %
26.11.2016 23:42 -0,1 C -1,7 C -2,2 C 92 % 15 lf 1018,8 hPa 0,0 l/m 0 min 0 min 0 W/m 0,0 km/h (0 Bft) 95,12 %
26.11.2016 23:44 -0,1 C -1,7 C -2,2 C 92 % 15 lf 1018,7 hPa 0,0 l/m 0 min 0 min 0 W/m 0,0 km/h (0 Bft) 93,62 %
26.11.2016 23:46 -0,1 C -1,7 C -2,2 C 92 % 15 lf 1018,7 hPa 0,0 l/m 0 min 0 min 0 W/m 0,0 km/h (0 Bft) 96,00 %
26.11.2016 23:48 -0,1 C -1,7 C -2,2 C 92 % 15 lf 1018,8 hPa 0,0 l/m 0 min 0 min 0 W/m 0,0 km/h (0 Bft) 95,92 %
26.11.2016 23:50 -0,1 C -1,7 C -2,2 C 92 % 15 lf 1018,7 hPa 0,0 l/m 0 min 0 min 0 W/m 0,0 km/h (0 Bft) 93,62 %
26.11.2016 23:52 -0,2 C -1,7 C -2,2 C 92 % 15 lf 1018,8 hPa 0,0 l/m 0 min 0 min 0 W/m 0,0 km/h (0 Bft) 92,68 %
26.11.2016 23:54 -0,2 C -1,7 C -2,2 C 92 % 15 lf 1018,8 hPa 0,0 l/m 0 min 0 min 5 W/m 2,1 km/h (1 Bft) 96,00 %
26.11.2016 23:56 -0,2 C -1,7 C -2,2 C 92 % 15 lf 1018,8 hPa 0,0 l/m 0 min 0 min 1 W/m 4,2 km/h (1 Bft) 95,74 %
26.11.2016 23:58 -0,2 C -1,7 C -2,2 C 92 % 15 lf 1018,7 hPa 0,0 l/m 0 min 0 min 0 W/m 4,2 km/h (1 Bft) 91,49 %
_ Min-Zeit 23:52 23:08 23:14 00:34 00:00 15:04 - - - - 02:46 00:02
Minimum _ -0,2 C -1,7 C -2,2 C 81 % 0 lf 1017,6 hPa - - - - 0,0 km/h (0 Bft) 5,26 %
_ Max-Zeit 15:06 13:18 13:46 22:40 22:04 00:00 00:00 12:38 00:00 13:20 00:12 00:06
Maximum _ 7,7 C 10,0 C 7,8 C 92 % 15 lf 1020,2 hPa 0,0 l/m 2 min 0 min 208 W/m 23,0 km/h
O-NO (4 Bft)
100,00 %
Durchschnitt _ 3,8 C 4,0 C 2,8 C 87 % 2 lf 1018,9 hPa #0,0 l/m #3:24 h #0 min. 37 W/m 6,0 km/h (2 Bft) 95,62 %
© 2016 W. Hausmann